[{"header": {"dx": 0.06612293990616946, "dy": 0.0552356325346848, "nx": 98, "ny": 59, "la1": 35.046912555036876, "la2": 31.78801023549047, "lo1": -121.43107172385933, "lo2": -114.95102361305473, "refTime": "2026041605", "parameterCategory": 1, "parameterNumber": 2}, "data": [10.31, 10.31, 10.31, 10.34, 10.36, 10.11, 10.05, 10.08, 9.73, 9.71, 9.43, 8.01, 8.66, 9.17, 8.53, 11.62, 11.62, 0.0, 0.0, 0.0, 0.0, 0.0, 5.2, 10.0, 10.0, 10.4, 11.45, 11.87, 6.7, 2.93, 3.04, 3.14, 5.6, 7.9, 8.23, 7.87, 8.05, 8.72, 8.4, 4.6, 1.62, 3.53, 5.2, 7.85, 10.59, 13.14, 16.37, 12.27, 13.15, 6.2, 9.31, 9.71, 10.75, 11.06, 11.06, 12.11, 12.52, 12.86, 12.5, 12.56, 12.56, 12.27, 11.93, 11.17, 11.21, 11.9, 12.18, 12.42, 13.41, 14.2, 14.17, 13.2, 13.74, 14.24, 14.44, 14.21, 13.56, 13.49, 14.36, 14.5, 13.75, 7.44, -0.0, -0.0, 12.07, 11.62, 8.53, 10.6, 10.0, 10.6, 11.72, 12.33, 13.67, 14.47, 7.59, 6.4, 5.8, 6.43, 10.31, 10.31, 10.31, 10.34, 10.08, 10.39, 10.13, 10.08, 9.79, 9.44, 8.74, 8.51, 8.1, 8.85, 9.17, 8.53, 10.73, 0.0, 0.0, 0.0, 0.0, 0.0, 4.1, 5.8, 10.18, 10.6, 11.03, 11.45, 6.7, 0.0, 0.0, 0.0, 3.04, 5.46, 5.69, 7.15, 6.9, 7.67, 8.05, 8.23, 4.65, 4.24, 6.87, 7.54, 10.98, 14.7, 12.52, 13.86, 5.15, 9.44, 9.6, 10.01, 10.75, 10.75, 10.75, 11.63, 12.11, 12.16, 12.5, 12.56, 12.56, 12.27, 11.57, 11.21, 11.21, 11.53, 12.42, 12.42, 13.59, 14.39, 14.56, 14.39, 14.65, 13.84, 14.03, 13.77, 13.89, 13.49, 14.36, 14.5, 13.75, 7.44, -0.0, -0.0, 12.07, 11.62, 8.53, 10.6, 10.0, 10.6, 11.72, 12.33, 13.67, 14.47, 7.59, 6.4, 5.8, 6.43, 10.31, 10.31, 10.31, 10.05, 10.34, 10.36, 10.11, 10.42, 9.79, 9.44, 8.42, 6.76, 8.3, 9.66, 9.67, 10.4, 10.4, 0.0, 0.0, 0.0, 0.0, 0.0, 0.0, 0.0, 4.38, 8.93, 10.18, 10.18, 7.9, 0.0, -2.89, -2.98, 0.0, 0.0, 3.8, 6.32, 6.63, 7.44, 8.0, 8.93, 7.24, 5.72, 7.69, 9.66, 10.98, 10.92, 12.79, 6.9, 9.44, 10.75, 9.89, 10.75, 10.75, 10.75, 10.43, 10.75, 11.76, 12.65, 12.56, 12.56, 12.27, 11.57, 11.21, 11.21, 11.53, 11.9, 12.81, 13.58, 13.58, 14.17, 14.39, 14.61, 14.44, 14.42, 14.23, 14.31, 14.86, 14.58, 14.03, 14.66, 14.25, 11.99, 5.8, 8.53, -0.0, -0.0, 7.9, 11.18, 10.38, 10.87, 12.42, 13.7, 14.75, 10.43, 4.52, 3.68, 5.11, 5.6, 10.31, 10.31, 10.31, 10.05, 10.34, 10.46, 10.39, 10.41, 9.77, 9.14, 8.51, 7.09, 6.94, 7.26, 8.22, 9.67, 11.03, 8.53, 0.0, -2.93, -2.71, 0.0, 0.0, 0.0, 0.0, 0.0, 7.27, 9.33, 6.95, 0.0, -3.32, -3.81, -4.3, 0.0, 3.04, 6.44, 7.27, 7.59, 6.83, 7.26, 7.51, 7.01, 7.78, 8.85, 10.61, 12.96, 11.53, 10.12, 10.43, 10.43, 10.43, 10.75, 10.43, 9.71, 9.71, 11.03, 11.52, 12.27, 12.99, 12.36, 12.74, 11.57, 11.57, 11.21, 11.53, 12.74, 13.78, 13.16, 14.19, 14.88, 14.18, 14.18, 14.73, 14.18, 14.11, 13.86, 14.75, 15.2, 15.12, 13.86, 13.36, 13.15, 12.3, 8.22, -5.0, -0.0, 10.04, 11.62, 10.0, 11.28, 14.99, 14.47, 8.31, 2.2, 1.83, 2.91, 4.1, 5.08, 10.31, 10.31, 10.31, 10.05, 10.34, 10.73, 10.74, 10.39, 10.13, 9.5, 8.23, 7.22, 6.7, 5.98, 7.9, 8.22, 8.22, 9.67, 3.68, -2.93, -3.14, -3.04, 0.0, 0.0, -1.76, -2.93, 0.0, 3.82, 3.53, 0.0, -1.52, -2.71, -3.34, -2.24, 1.77, 5.02, 5.99, 8.31, 6.87, 6.87, 7.62, 9.84, 12.45, 13.86, 13.75, 12.98, 12.79, 11.64, 11.2, 11.54, 10.43, 10.12, 9.31, 9.6, 9.71, 11.64, 12.09, 12.45, 12.74, 12.79, 12.56, 11.35, 11.35, 12.09, 12.45, 13.95, 14.33, 12.92, 14.08, 15.82, 16.68, 15.8, 16.2, 16.02, 15.25, 12.96, 13.63, 13.94, 13.83, 13.41, 12.96, 12.96, 12.07, 11.18, -11.18, 11.62, 11.71, 11.18, 11.72, 13.03, 11.44, 5.8, 3.44, -0.0, 1.29, 3.85, 6.3, 6.63, 9.88, 10.31, 10.31, 10.05, 10.34, 10.34, 10.46, 10.1, 10.13, 9.49, 8.23, 6.31, 7.24, 8.22, 7.9, 7.9, 7.9, 8.22, 5.0, 0.0, -2.82, -2.62, -2.2, -2.63, -3.04, -2.37, -2.37, 0.0, 0.0, 0.0, 0.0, 0.0, -1.28, 0.0, 0.86, 3.12, 4.24, 6.94, 6.71, 5.92, 5.6, 13.57, 13.86, 14.3, 14.3, 14.4, 13.19, 11.64, 10.86, 10.99, 9.8, 8.87, 9.8, 10.12, 11.2, 12.27, 13.19, 13.19, 13.19, 12.99, 12.62, 11.72, 12.27, 13.03, 13.18, 13.26, 13.61, 12.36, 13.15, 16.37, 19.09, 17.78, 15.8, 16.59, 17.28, 15.98, 13.41, 12.58, 12.83, 12.96, 12.07, 10.79, 10.38, 10.4, 0.0, 2.28, 7.54, 10.59, 11.8, 14.3, -0.0, 1.66, 1.48, 1.43, 2.54, 5.45, 6.87, 7.28, 9.64, 10.05, 10.05, 10.05, 10.34, 10.34, 10.08, 10.36, 10.11, 9.49, 7.96, 5.92, 6.97, 8.94, 9.66, 8.93, 8.94, 7.26, 6.45, 4.4, 1.84, -1.64, -3.53, -4.12, -3.04, -2.82, -2.82, -1.33, -1.55, -1.33, 0.0, 0.0, 0.0, 2.97, 2.94, 2.92, 3.68, 7.11, 6.45, 5.7, 8.85, 12.3, 12.79, 14.42, 15.65, 12.65, 12.22, 11.54, 10.52, 10.82, 10.12, 9.8, 10.12, 11.2, 12.13, 11.75, 13.07, 13.07, 13.44, 13.15, 12.45, 12.25, 12.89, 12.22, 11.7, 12.36, 13.26, 13.18, 13.42, 16.24, 19.63, 18.66, 16.21, 16.1, 16.58, 16.58, 14.94, 13.33, 13.23, 13.41, 11.46, 9.08, 8.53, 7.54, 4.48, 3.04, 6.2, 8.78, 7.93, -0.0, -2.2, -0.0, -0.0, -0.0, 2.63, 5.8, 7.28, 7.02, 9.64, 9.64, 10.05, 10.05, 10.34, 10.34, 10.08, 10.1, 9.83, 8.83, 7.59, 5.23, 6.76, 9.08, 9.42, 8.38, 9.08, 9.27, 7.44, 8.22, 10.84, 11.18, 9.66, 0.0, -2.19, -2.23, -2.23, -3.39, -5.2, -5.0, -3.53, -2.28, 0.0, 2.95, 4.3, 4.01, 3.02, 4.15, 5.6, 8.22, 11.18, 12.07, 11.2, 12.39, 10.43, 5.09, 8.68, 12.22, 11.8, 10.12, 9.77, 9.48, 9.8, 11.28, 11.75, 12.39, 12.66, 13.15, 12.85, 12.42, 11.45, 12.33, 11.87, 10.02, 10.47, 12.78, 14.33, 14.7, 14.69, 15.65, 17.88, 18.33, 16.09, 15.62, 15.2, 14.75, 14.19, 12.89, 12.58, 14.27, 13.86, 8.85, 5.86, 6.08, 5.08, 4.98, 6.42, 6.9, 4.81, -0.0, -2.13, -3.56, -1.48, -0.0, 4.24, 6.63, 7.85, 7.44, 9.64, 9.64, 9.64, 10.05, 10.34, 10.34, 10.08, 10.1, 9.45, 8.83, 7.57, 5.4, 5.8, 5.18, 6.7, 7.85, 7.85, 7.85, 7.26, 9.3, 11.18, 11.62, 11.62, 11.45, 6.21, 0.0, -1.84, -5.46, -5.45, -4.23, -1.14, 0.0, 1.04, 2.28, 3.29, 2.95, 3.98, 0.0, 0.0, 11.18, -12.52, -8.85, -12.52, -13.41, -0.0, -0.0, 11.38, 14.13, 12.36, 11.54, 10.43, 9.17, 9.48, 11.28, 12.03, 12.98, 13.44, 12.66, 12.44, 12.0, 12.04, 13.59, 9.12, 9.77, 11.38, 14.85, 16.54, 15.91, 14.69, 14.31, 15.68, 15.98, 15.9, 15.12, 14.42, 14.11, 13.86, 12.96, 13.38, 15.18, 14.28, 11.64, 5.02, 4.38, 3.96, 4.65, 6.67, 7.78, 11.2, -0.0, -1.83, -2.81, -2.81, -0.0, 4.71, 7.51, 7.56, 7.73, 9.4, 9.4, 9.64, 10.05, 10.34, 10.08, 10.08, 10.1, 9.47, 8.56, 7.8, 7.13, 6.5, 5.32, 5.11, 5.25, 5.43, 4.65, 3.82, 2.42, 2.6, 4.4, 7.44, 8.22, 7.9, 5.0, 0.0, -4.4, -4.8, -3.21, 0.0, 0.0, 0.0, 0.0, 0.0, 0.0, 0.0, 0.0, -11.62, -12.52, -8.53, -12.52, -12.07, -11.62, 11.62, 12.96, 13.41, 12.79, 13.02, 11.06, 9.44, 10.43, 10.99, 12.03, 12.74, 14.16, 13.86, 12.07, 11.18, 12.52, 13.19, 9.92, 8.97, 8.93, 11.38, 15.59, 17.25, 15.91, 13.37, 12.27, 12.65, 13.78, 14.61, 15.02, 14.84, 13.15, 12.45, 10.79, 11.76, 14.28, 15.2, 16.22, 7.4, 0.0, 3.81, 6.0, 8.87, 12.98, 13.23, 6.67, -0.0, -1.77, -3.96, -0.0, 4.1, 8.01, 8.85, 8.85, 9.4, 9.67, 9.67, 10.34, 10.34, 10.08, 10.08, 9.45, 9.07, 8.16, 8.18, 8.18, 8.18, 7.36, 6.0, 4.71, 5.91, 4.7, 3.58, 2.89, 2.32, 2.44, 3.38, 3.44, 3.14, 2.1, 2.49, 6.95, 0.0, -1.62, -2.02, -6.64, -9.83, -9.33, -8.18, -5.2, -5.2, -11.62, -11.62, 12.52, -0.0, -0.0, 11.62, 12.07, 11.62, 11.62, 12.07, 5.6, 7.19, 4.98, 6.6, 10.3, 12.36, 13.39, 14.39, 15.9, 16.37, 13.86, 9.83, 11.99, 5.51, 8.0, 7.4, 8.53, 8.93, 10.98, 14.47, 15.99, 15.2, 10.73, 9.8, 11.64, 13.18, 13.8, 13.03, 12.21, 9.97, 9.09, 12.42, 14.42, 15.2, 14.24, 14.13, 9.42, 7.2, 11.8, 14.99, 15.2, 13.57, 10.47, 4.65, -2.45, -4.65, -0.0, 4.48, 9.17, 10.12, 9.17, 9.67, 9.67, 9.67, 9.67, 10.08, 10.08, 10.1, 9.45, 8.81, 8.16, 8.16, 8.16, 9.09, 8.85, 8.53, 7.19, 6.31, 5.4, 4.81, 4.38, 4.31, 4.4, 3.22, 1.94, 2.63, 0.0, 0.0, -6.01, -7.59, -10.18, -10.84, -10.73, -10.41, -9.2, -10.28, -10.41, -8.93, -11.62, -11.62, 12.07, -0.0, -0.0, -0.0, 11.62, 10.73, 10.28, -0.0, -0.0, -0.0, 4.38, 6.4, 9.92, 13.28, 15.71, 15.01, 17.19, 16.74, 17.43, 12.07, -0.0, 1.78, 4.82, 5.96, 4.23, 2.45, 5.28, 8.02, 10.2, 10.35, 10.19, 14.31, 12.39, 11.33, 10.75, 9.96, 9.1, 9.67, 13.19, 14.84, 15.65, 14.39, 12.57, 14.85, 17.19, 18.41, 18.96, 17.3, 15.08, 14.31, 11.53, 8.85, -0.0, -3.68, -0.0, 5.6, 9.17, 9.17, 7.78, 9.0, 9.67, 9.67, 9.67, 10.08, 10.08, 10.1, 9.45, 8.81, 8.16, 8.16, 8.81, 8.81, 9.21, 9.8, 8.87, 8.79, 8.21, 8.49, 8.87, 10.58, 12.95, 14.9, 14.66, 14.19, 13.72, 13.41, 9.17, -10.04, -9.46, -11.18, -11.18, -10.52, -9.97, -9.75, -9.75, -9.75, -7.9, -7.9, -7.9, -0.0, -0.0, -0.0, 9.83, 10.28, -7.59, -5.2, -5.4, -0.0, -0.0, 8.85, 11.99, 14.3, 14.42, 16.12, 17.39, 16.74, 20.39, 16.09, -2.93, -1.6, 2.96, 4.23, 1.23, -0.0, -0.0, 3.16, 6.07, 7.06, 9.3, 11.09, 9.4, 14.3, 6.45, 7.87, 9.97, 14.31, 16.09, 14.39, 14.79, 14.39, 15.36, 15.78, 16.46, 15.52, 17.16, 18.84, 17.46, 14.39, 12.42, 12.39, 10.4, -0.0, -0.0, 3.96, 9.17, 5.8, 6.0, 9.0, 9.42, 9.67, 9.67, 9.67, 10.08, 9.7, 9.19, 8.81, 8.56, 8.56, 8.56, 8.81, 9.48, 9.49, 9.21, 9.13, 9.48, 10.02, 10.82, 12.6, 13.57, 14.65, 14.66, 14.22, 14.19, 13.82, 13.44, 9.48, -12.52, -10.73, -10.73, -10.84, -9.83, -9.33, -6.95, -6.95, -4.6, -0.0, -10.73, -10.73, -10.28, 10.73, 10.28, 9.83, -4.6, -4.2, -7.9, -11.62, -8.85, 0.0, 0.0, 0.0, 12.07, 12.52, 8.85, 15.65, 19.22, 21.46, -4.38, -6.2, -0.0, -0.0, -0.0, -1.5, -3.24, -3.42, -0.0, 7.97, 14.24, 10.6, -0.0, -4.45, -0.0, 10.0, 14.75, 14.79, 13.95, 14.13, 14.75, 16.12, 16.54, 15.65, 15.11, 15.18, 15.84, 17.35, 17.56, 16.02, 14.36, 12.79, 10.96, 7.9, -0.0, 3.96, 9.17, -0.0, 4.1, 9.0, 9.42, 9.42, 9.67, 9.67, 9.42, 9.45, 9.19, 8.81, 8.81, 8.56, 8.83, 8.81, 9.48, 9.49, 9.21, 8.83, 9.8, 10.25, 10.73, 11.03, 12.08, 13.07, 13.5, 13.7, 13.4, 13.29, 13.32, 12.25, 12.72, 12.52, -7.27, -11.18, -10.28, -7.27, -3.25, -0.0, -0.0, -0.0, 9.83, 10.28, 10.73, 0.0, 9.83, -0.0, -3.11, -4.4, -0.0, -10.73, -11.18, 0.0, 0.0, 10.73, 9.39, 9.83, 10.73, 0.0, 9.8, 17.97, -0.0, -5.8, -4.1, -4.38, -0.0, -4.66, -4.81, -11.7, -0.0, 16.09, 14.22, -0.0, -3.53, -0.0, -0.0, 9.48, 11.7, 13.61, 14.55, 15.19, 15.91, 16.91, 16.99, 15.65, 13.23, 10.37, 14.99, 15.2, 15.71, 14.39, 14.36, 14.4, 12.33, 8.22, 3.04, 6.0, 5.8, 4.1, 4.1, 9.0, 9.42, 9.42, 9.42, 9.42, 9.42, 9.45, 8.79, 8.81, 8.81, 8.81, 8.83, 9.48, 9.21, 9.22, 8.87, 8.83, 9.15, 9.8, 10.22, 10.58, 10.81, 12.11, 13.45, 13.7, 14.13, 13.4, 13.29, 12.89, 12.94, 12.89, 12.07, 10.28, 10.73, -4.6, -2.17, -0.0, -0.0, -0.0, 10.28, 9.39, 9.39, 10.28, 6.95, -0.0, -2.97, -3.11, -0.0, -0.0, 10.28, 11.18, 11.62, 11.62, 7.59, 6.64, 9.83, 7.27, 9.67, 14.75, 8.68, -0.0, -0.0, -0.0, -0.0, 12.07, 12.96, -9.17, 0.0, -0.0, -8.8, -17.17, -10.41, -0.0, 5.94, 9.12, 10.17, 12.66, 13.28, 14.66, 14.08, 14.08, 14.66, 15.19, 14.75, 3.82, 0.0, 11.5, 12.96, 11.6, 10.82, 12.52, 9.96, 7.78, 8.38, 8.85, 7.24, 5.6, 5.6, 9.0, 9.0, 9.42, 9.42, 9.42, 9.45, 9.45, 8.79, 9.07, 8.81, 8.81, 8.83, 9.21, 9.12, 8.86, 8.87, 8.87, 8.87, 9.48, 10.18, 10.91, 11.16, 11.85, 13.0, 13.7, 14.05, 14.49, 14.47, 14.4, 13.88, 12.82, 12.51, 10.84, 11.18, -0.0, -0.0, -0.0, -0.0, 4.6, 9.83, 9.83, 8.94, 10.28, 6.32, -0.0, -0.0, -4.6, -0.0, -0.0, -0.0, 4.6, 4.8, 7.9, 7.59, 7.59, 9.75, 10.28, 10.41, 9.66, 7.78, 5.6, 3.53, 4.8, 9.6, 10.73, 10.28, 11.62, 0.0, -13.86, -17.43, -21.25, -14.66, -12.64, 21.01, 5.65, 5.16, 7.95, 10.91, 12.29, 10.41, 8.0, 9.67, 10.19, 8.43, 14.3, 0.0, 2.37, 9.17, 9.48, 11.53, 12.95, 11.16, 9.77, 9.17, 10.12, 7.54, 6.44, 6.44, 9.0, 9.0, 9.0, 9.42, 9.45, 9.45, 9.04, 8.79, 9.07, 8.81, 9.09, 8.83, 8.83, 8.58, 8.22, 8.59, 8.87, 9.48, 9.48, 10.45, 11.12, 11.69, 12.13, 12.92, 13.26, 14.25, 15.06, 14.95, 14.93, 14.7, 14.15, 12.72, 11.87, 10.84, 10.52, 4.6, -0.0, 7.27, 9.83, 9.83, 9.83, 9.83, 9.83, 10.28, 7.27, -0.0, -0.0, -0.0, 4.6, 4.6, 4.6, 7.27, 7.27, 7.27, 8.55, 8.55, 9.2, 8.58, 6.71, 7.9, 8.53, 8.22, 9.6, 10.73, 10.18, 4.4, 6.64, 4.6, 2.93, -7.0, -14.22, -13.91, -6.22, 21.46, -0.0, -0.0, 7.04, 11.53, 13.07, 11.27, 11.16, 12.64, 14.3, 13.41, 11.87, 11.87, 12.96, 9.17, 11.16, 13.28, 12.79, 10.79, 10.09, 9.42, 9.17, 8.1, 8.85, 8.85, 8.77, 8.77, 8.77, 9.04, 9.04, 9.04, 9.04, 8.79, 9.47, 9.2, 9.48, 8.83, 8.85, 8.22, 7.57, 8.72, 8.23, 8.87, 9.15, 10.31, 11.99, 13.05, 12.25, 12.38, 11.87, 13.37, 12.36, 13.15, 12.63, 12.81, 12.7, 12.04, 11.55, 11.78, 11.02, 9.6, 9.75, 10.73, 11.18, 10.73, 9.83, 9.75, 11.18, 11.18, 10.4, 4.8, 4.8, 4.6, 4.6, 4.6, 7.27, 7.27, 7.27, 5.7, 4.6, 6.17, 7.27, 7.9, 9.66, 9.3, 9.67, 11.03, 10.6, 9.83, 4.4, -2.97, -4.2, 9.2, 9.2, 12.79, 17.35, 20.12, 22.93, 23.85, 16.48, 15.18, 16.09, 16.54, 16.86, 16.32, 16.76, 17.43, 15.93, 12.39, 13.23, 13.41, 13.41, 12.71, 13.41, 13.41, 14.03, 12.56, 11.3, 10.4, 9.8, 10.12, 10.82, 10.82, 8.77, 8.77, 9.04, 9.04, 9.04, 9.04, 8.79, 8.79, 9.19, 9.47, 9.48, 8.85, 8.58, 8.22, 8.22, 8.24, 8.24, 7.6, 7.93, 9.3, 11.76, 12.74, 12.32, 11.09, 9.96, 10.66, 11.04, 11.56, 12.08, 11.44, 11.2, 11.36, 11.56, 11.95, 11.62, 10.41, 10.41, 10.41, 10.73, 10.28, 10.73, 10.73, 11.18, 11.18, 10.6, 11.03, 7.27, 7.27, 4.6, 4.4, 6.95, 7.27, 3.39, 2.71, 2.39, 4.4, 7.9, 7.59, 8.93, 11.03, 10.6, 10.73, 10.73, 10.73, -4.6, -5.7, -7.27, -0.0, 11.71, 13.09, 15.54, 18.77, 23.48, 26.15, 21.01, 15.44, 11.38, 9.88, 15.2, 16.82, 15.65, 16.54, 15.12, 13.31, 13.86, 13.41, 13.15, 11.12, 12.71, 12.52, 13.01, 13.41, 12.86, 12.79, 12.39, 12.16, 12.65, 12.65, 9.04, 9.04, 9.04, 9.04, 8.79, 8.79, 8.79, 8.79, 9.19, 9.47, 9.48, 8.85, 8.22, 8.22, 8.22, 8.23, 7.87, 7.22, 6.96, 8.18, 10.12, 11.05, 11.69, 11.68, 11.33, 11.29, 11.63, 11.12, 10.8, 10.55, 10.4, 10.79, 11.18, 11.62, 11.62, 10.38, 10.38, 9.6, 10.41, 10.96, 10.96, 10.96, 11.02, 11.95, 11.51, 11.45, 9.33, 9.2, 9.2, 7.27, 4.4, 3.25, -0.0, -0.0, 2.6, 4.6, 5.0, 6.2, 8.22, 10.0, 11.18, 11.18, 10.73, -0.0, -7.27, -7.59, -3.39, -0.0, 4.81, 8.05, 11.06, 15.42, 22.4, 25.03, 19.2, 14.95, 9.07, 8.87, 8.51, 10.75, 15.04, 15.65, 14.68, 13.09, 13.72, 13.15, 12.45, 11.5, 12.56, 12.07, 11.62, 12.72, 14.3, 13.15, 13.15, 13.19, 13.7, 13.7, 8.79, 8.79, 8.79, 8.79, 8.79, 8.79, 8.79, 8.79, 9.07, 9.2, 9.21, 8.85, 8.22, 8.22, 8.51, 8.51, 8.15, 8.15, 8.51, 9.5, 10.13, 10.12, 9.8, 10.09, 11.29, 12.09, 12.93, 11.99, 11.52, 11.66, 11.54, 11.13, 11.53, 11.62, 11.46, 10.75, 11.18, 11.18, 11.02, 11.02, 11.02, 10.96, 10.96, 11.91, 11.02, 10.52, 10.73, 9.83, 7.27, 7.27, 4.6, -0.0, -0.0, -0.0, -0.0, 2.19, 3.19, 4.39, 7.26, 7.59, 10.28, 10.73, -7.9, -5.0, -6.2, -6.2, -5.2, -2.93, -0.0, -0.0, 8.05, 14.22, 17.99, 21.59, 5.9, 6.44, 7.6, 7.7, 6.28, 5.5, 9.77, 16.37, 15.99, 13.89, 13.07, 11.64, 11.5, 12.79, 14.18, 12.0, 11.95, 12.45, 14.3, 14.3, 13.57, 13.57, 14.47, 14.47, 8.37, 8.37, 8.79, 8.79, 8.79, 8.79, 8.81, 8.81, 8.81, 8.81, 8.83, 8.85, 8.86, 8.22, 8.51, 8.51, 8.42, 8.81, 9.16, 10.44, 10.72, 10.06, 9.42, 9.76, 10.87, 11.99, 12.64, 13.0, 12.54, 12.22, 11.84, 11.49, 11.57, 11.62, 11.62, 11.35, 11.35, 11.35, 11.55, 11.53, 11.51, 11.51, 11.46, 10.79, 11.4, 10.84, 10.73, 9.39, 9.39, 7.27, -0.0, -0.0, -0.0, -0.0, -0.0, -0.0, -0.0, 2.13, 6.67, 6.64, 6.64, -10.28, -10.4, -3.68, -5.0, -4.15, -2.82, -3.53, -3.68, -5.6, -0.0, -0.0, -18.65, -13.86, 0.0, 1.84, 3.73, 5.51, 5.65, 3.47, 4.38, 11.06, 15.43, 15.65, 14.31, 12.98, 12.74, 13.75, 15.05, 14.75, 12.83, 13.41, 14.3, 14.3, 14.3, 13.88, 14.11, 14.11, 8.37, 8.37, 8.37, 8.79, 8.55, 8.81, 8.81, 8.81, 8.81, 8.83, 8.83, 8.85, 8.86, 8.49, 8.51, 8.51, 9.09, 9.09, 9.46, 10.12, 10.69, 10.35, 10.23, 10.01, 10.59, 11.61, 11.99, 12.64, 12.66, 12.36, 12.22, 11.86, 11.51, 11.14, 11.18, 11.18, 11.13, 11.13, 11.62, 11.62, 11.62, 11.62, 11.51, 11.46, 11.4, 11.18, 12.52, 11.18, 7.59, 5.0, 5.2, -0.0, -0.0, -0.0, -0.0, -0.0, -0.0, -0.0, 5.8, 6.97, 6.32, 9.39, -10.0, -6.45, -5.0, -4.48, -2.93, -0.0, -3.53, -7.9, 0.0, 11.41, 18.33, 28.16, 16.54, 0.0, 0.0, 3.14, 5.99, 4.81, 3.98, 5.63, 10.43, 12.79, 14.18, 14.6, 14.75, 14.75, 15.2, 13.39, 12.39, 11.99, 13.44, 13.86, 14.3, 14.3, 13.86, 13.86, 8.14, 8.14, 8.14, 8.14, 8.4, 8.4, 8.16, 8.16, 8.83, 8.83, 8.57, 8.85, 8.58, 8.86, 8.78, 8.78, 9.09, 9.17, 9.17, 9.5, 10.09, 10.7, 10.65, 10.59, 11.06, 11.06, 11.87, 11.99, 12.45, 12.66, 12.36, 12.62, 12.3, 11.52, 11.15, 10.73, 11.18, 11.18, 11.18, 11.62, 11.62, 11.62, 11.18, 11.18, 11.18, 10.73, 11.62, 10.73, 9.33, 6.95, 5.95, 5.6, -0.0, -0.0, -0.0, -0.0, -0.0, -3.11, -0.0, 8.85, 9.3, 9.39, -0.0, -5.95, -4.32, -2.37, -2.37, -0.0, -2.93, 11.62, 9.48, 12.73, 21.68, 27.58, 26.55, 18.39, 15.33, 13.02, 6.4, 5.45, 5.15, 5.15, 7.11, 8.73, 11.33, 12.27, 13.19, 13.99, 14.9, 7.0, 9.0, 11.03, 12.42, 13.7, 13.41, 13.86, 13.86, 13.86, 8.14, 8.14, 8.4, 8.4, 8.4, 8.16, 8.16, 8.18, 8.18, 8.18, 8.57, 8.85, 8.85, 8.86, 9.16, 8.51, 8.81, 9.17, 9.17, 9.8, 9.8, 10.39, 10.7, 10.87, 11.16, 11.06, 11.47, 11.47, 11.72, 11.95, 12.08, 12.49, 12.18, 11.86, 11.52, 11.15, 10.7, 10.7, 11.15, 11.18, 11.18, 11.62, 11.18, 11.18, 10.73, 10.73, 11.62, 10.28, 9.64, 8.8, 7.9, 6.2, 5.6, -0.0, -0.0, -0.0, -0.0, -0.0, -0.0, 11.62, 12.07, 12.07, 8.91, -0.0, -2.71, -2.93, -3.04, -0.0, -4.1, 12.52, 8.53, 12.27, 16.71, 24.14, 26.35, 23.27, 18.78, 17.13, 8.22, 3.68, 4.58, 6.2, 7.28, 6.73, 7.93, 12.22, 12.65, 13.7, 8.85, 6.8, 10.61, 12.29, 12.82, 13.99, 12.39, 13.28, 12.87, 12.87, 8.4, 8.4, 8.4, 8.16, 8.16, 8.16, 8.43, 8.18, 8.18, 8.46, 8.46, 8.85, 8.85, 8.86, 8.86, 8.87, 9.17, 9.17, 9.48, 9.8, 10.11, 10.11, 10.35, 10.87, 11.16, 11.22, 11.22, 11.47, 11.72, 11.85, 12.08, 11.8, 11.95, 11.52, 11.66, 11.4, 11.4, 11.08, 10.62, 10.18, 11.05, 11.58, 11.57, 10.73, 10.28, 11.18, 11.18, 10.28, 9.83, 9.64, 9.6, 9.3, 7.27, 3.25, -0.0, -0.0, -0.0, -4.6, -8.4, -10.28, 12.07, 11.18, 10.84, 7.59, 3.04, -0.0, -0.0, -0.0, -0.0, 12.96, 9.17, 10.73, 13.19, 16.92, 18.91, 22.69, 22.32, 18.66, 6.95, 1.22, 3.06, 5.43, 5.99, 4.81, 5.46, 8.18, 12.22, 15.18, 9.12, 10.43, 13.03, 15.2, 15.31, 14.79, 13.59, 13.15, 12.79, 12.79, 8.16, 8.16, 8.16, 8.16, 8.43, 8.43, 8.18, 8.18, 8.18, 8.2, 8.2, 8.2, 8.58, 8.58, 8.86, 8.87, 9.17, 8.87, 9.17, 9.17, 9.78, 9.78, 10.09, 10.35, 10.87, 11.34, 11.22, 11.47, 11.31, 11.44, 11.57, 11.38, 11.3, 11.52, 11.66, 11.23, 11.4, 10.96, 10.93, 10.62, 11.05, 11.46, 11.13, 10.23, 9.83, 10.73, 10.28, 10.28, 9.83, 10.28, 10.96, 10.18, 9.6, 9.2, -0.0, -0.0, -0.0, -4.8, -9.2, -9.2, 11.18, 11.18, 10.96, 9.66, 6.45, 6.94, -0.0, -0.0, 0.0, 0.0, 10.12, 12.79, 11.16, 10.82, 14.11, 19.67, 23.69, 19.22, 6.2, 0.0, 2.19, 4.32, 5.67, 5.18, 4.65, 4.87, 3.58, -0.0, 11.06, 13.7, 14.47, 15.65, 15.84, 15.68, 15.06, 14.53, 14.42, 14.42, 8.16, 8.16, 8.16, 8.43, 8.18, 8.18, 8.18, 8.18, 7.93, 8.2, 8.2, 8.2, 8.2, 8.86, 8.86, 8.87, 8.59, 8.87, 9.17, 9.17, 9.78, 9.46, 9.76, 10.35, 10.65, 10.3, 10.79, 11.06, 10.94, 11.44, 11.25, 11.16, 11.3, 11.52, 11.09, 11.23, 11.23, 10.96, 10.96, 10.49, 11.05, 11.02, 11.0, 11.91, 12.07, 10.28, 9.39, 9.77, 10.2, 10.28, 11.18, 10.73, 10.28, 10.28, 10.73, -0.0, -0.0, -0.0, -9.6, -10.0, -0.0, 10.0, 11.45, 10.41, 8.53, 4.1, 3.36, -0.0, -5.2, -5.2, 9.8, 14.47, 13.44, 10.18, 7.68, 12.26, 17.52, 17.85, 8.4, 0.0, 1.98, 3.69, 5.6, 6.08, 6.43, 2.63, 0.0, 14.75, 15.2, 15.2, 14.75, 15.2, 15.65, 15.53, 16.12, 16.48, 15.96, 15.96, 8.18, 8.18, 8.18, 8.18, 8.18, 8.18, 8.18, 8.2, 8.2, 8.2, 7.95, 8.22, 8.49, 8.86, 8.86, 8.59, 8.87, 8.87, 9.17, 8.87, 9.17, 9.46, 9.76, 9.76, 10.06, 10.3, 10.59, 10.88, 10.94, 11.2, 11.44, 11.16, 11.38, 10.96, 11.09, 11.09, 11.23, 10.8, 10.8, 10.49, 10.49, 10.45, 11.0, 10.52, 11.09, 11.62, 11.18, 10.04, 9.89, 10.96, 10.96, 9.97, 10.28, 10.28, 10.73, 10.73, -0.0, -0.0, -8.22, -7.9, -0.0, 7.9, 11.45, 10.4, 5.4, -0.0, -0.0, -0.0, 11.18, -4.4, 0.0, 11.99, 16.09, 16.48, 12.71, 12.99, 14.62, 13.39, 17.02, 16.74, 7.8, 5.08, 5.64, 7.28, 9.08, 14.3, 13.86, 14.3, 13.19, 13.19, 13.99, 14.84, 15.65, 15.55, 16.03, 17.23, 17.2, 17.2, 8.18, 8.18, 8.18, 8.18, 8.18, 7.93, 8.2, 8.2, 8.2, 7.95, 7.95, 7.83, 8.22, 8.22, 8.59, 8.59, 8.87, 9.21, 9.19, 9.17, 9.46, 9.46, 9.76, 9.76, 10.06, 10.37, 10.37, 10.31, 11.06, 11.06, 11.44, 11.44, 11.16, 11.16, 10.96, 10.46, 10.67, 10.6, 10.37, 10.32, 10.49, 10.45, 10.41, 10.28, 10.18, 11.45, 11.45, 10.41, 9.55, 10.84, 10.41, 8.55, 8.55, 7.59, 4.8, 10.73, -0.0, -0.0, -0.0, -0.0, -0.0, 8.22, 8.53, 11.62, 12.07, -0.0, -5.2, -0.0, 10.8, 8.8, 2.69, 5.0, 15.65, 22.73, 20.85, 15.78, 13.46, 12.45, 14.79, 19.08, 19.59, 12.01, 9.17, 13.15, 13.86, 14.07, 14.16, 14.3, 14.22, 14.47, 13.99, 13.99, 15.2, 15.65, 15.65, 16.04, 15.77, 15.77, 8.18, 8.18, 8.18, 8.18, 8.2, 8.2, 8.2, 7.95, 7.95, 7.55, 7.83, 7.57, 7.83, 7.96, 8.51, 8.87, 8.87, 9.21, 9.19, 9.48, 9.17, 9.46, 9.76, 9.76, 10.06, 10.37, 10.01, 9.73, 10.94, 10.26, 11.06, 11.06, 11.33, 10.92, 11.16, 10.75, 10.46, 10.46, 10.18, 10.18, 9.89, 10.25, 10.41, 10.35, 10.28, 10.38, 10.38, 10.41, 10.52, 10.84, 8.93, 8.55, 7.59, 5.95, 4.6, 10.28, -0.0, -0.0, -0.0, -0.0, -0.0, -0.0, 8.22, 11.18, 11.62, -11.18, -10.28, 11.62, 12.52, 11.45, 8.55, 10.28, 13.86, 18.78, 29.01, 19.52, 11.31, 8.49, 12.39, 17.25, 18.14, 17.79, 15.65, 14.22, 14.58, 15.08, 15.62, 14.73, 14.3, 13.77, 13.86, 14.3, 13.99, 12.16, 14.84, 13.99, 11.38, 11.38, 7.93, 7.93, 7.93, 8.2, 8.2, 8.2, 7.95, 7.95, 7.83, 7.83, 7.57, 7.57, 7.57, 7.85, 8.23, 8.59, 8.87, 8.87, 9.19, 9.48, 9.48, 9.46, 9.42, 9.42, 9.71, 9.77, 9.77, 10.09, 9.82, 10.94, 9.97, 10.52, 10.52, 10.67, 10.92, 10.4, 10.65, 10.46, 10.38, 10.18, 9.68, 10.25, 10.18, 10.08, 10.5, 9.96, 10.28, 10.04, 10.32, 9.96, 9.2, 9.2, 7.9, 5.95, 4.6, 10.73, 7.59, 4.8, 4.6, 3.39, -0.0, -0.0, 8.22, -0.0, -0.0, -0.0, -0.0, 10.28, 8.22, 12.3, 12.07, 5.0, 11.62, 13.8, 27.95, 23.65, 13.99, 0.0, 13.41, 14.3, 16.05, 16.86, 16.5, 16.54, 16.54, 16.54, 16.08, 15.18, 14.3, 13.41, 5.8, -7.44, -3.36, 2.81, 5.02, 9.89, 8.43, 8.43, 7.8, 7.8, 8.2, 8.2, 8.2, 7.95, 7.95, 8.22, 7.83, 7.83, 7.57, 7.57, 7.85, 7.85, 7.96, 7.96, 8.24, 8.87, 8.87, 9.48, 9.48, 9.46, 9.13, 9.42, 9.71, 9.77, 9.77, 10.09, 10.09, 10.04, 9.97, 9.97, 9.97, 10.52, 10.8, 10.4, 10.4, 10.65, 10.38, 9.96, 10.1, 9.6, 10.18, 10.08, 10.08, 9.85, 9.85, 9.75, 10.05, 9.86, 9.6, 9.58, 8.58, 7.27, 7.27, 10.28, 7.27, 6.95, 4.6, 3.39, -0.0, -0.0, -0.0, -0.0, -0.0, -0.0, -0.0, 10.73, 11.62, 12.52, 11.87, 8.85, 12.52, 12.65, 21.47, 25.57, 18.72, 14.38, 12.11, 13.94, 16.06, 16.54, 16.54, 16.99, 16.45, 15.95, 15.96, 15.14, 14.3, 12.72, -3.96, -7.28, -5.6, -0.0, 4.98, 7.82, 9.12, 9.12, 7.8, 7.8, 7.55, 7.55, 7.95, 8.22, 8.22, 8.22, 7.83, 7.57, 7.57, 7.85, 7.85, 7.59, 7.87, 7.87, 8.24, 8.58, 8.87, 9.19, 9.48, 9.17, 9.46, 9.42, 9.71, 9.46, 9.77, 9.77, 10.09, 10.31, 10.04, 9.97, 9.97, 10.26, 10.26, 10.26, 10.26, 10.53, 10.13, 10.27, 9.86, 9.6, 9.49, 10.18, 9.66, 9.92, 9.42, 9.85, 9.75, 10.05, 9.86, 10.0, 9.6, 8.82, 10.41, 10.28, 9.83, 8.8, 6.95, -0.0, -0.0, -0.0, -0.0, -0.0, -0.0, -0.0, -0.0, 11.18, 11.18, 0.0, 12.52, 13.86, 14.3, 15.25, 18.77, 21.31, 20.02, 16.39, 15.71, 17.66, 17.43, 16.78, 15.45, 15.01, 15.45, 14.69, 14.74, 14.75, 13.34, 6.44, -3.44, -7.82, -5.6, -0.0, 5.8, 9.17, 10.43, 10.43, 7.55, 7.55, 7.55, 7.83, 7.83, 8.22, 8.22, 8.22, 7.57, 7.57, 7.85, 7.85, 7.85, 7.59, 7.87, 7.87, 8.24, 8.24, 8.58, 8.87, 9.17, 9.17, 9.46, 9.42, 9.42, 9.46, 9.77, 9.77, 10.09, 10.09, 10.41, 10.04, 9.97, 9.58, 9.86, 9.86, 9.86, 10.0, 10.0, 10.0, 9.74, 10.01, 9.49, 9.33, 9.49, 9.49, 9.24, 9.55, 9.4, 9.6, 9.6, 9.32, 9.45, 10.18, 10.08, 9.83, 9.83, 9.33, 8.8, -0.0, -0.0, -0.0, -0.0, -0.0, 4.6, 7.9, 7.27, 10.73, 11.18, 0.0, 12.96, 12.96, 15.65, 16.94, 19.22, 17.43, 17.26, 19.08, 21.0, 19.2, 19.2, 15.67, 12.46, 12.63, 13.25, 12.96, 12.96, 12.44, 11.5, 8.1, -0.0, -2.54, -0.0, -0.0, 8.85, 10.79, 10.82, 10.82, 7.83, 7.83, 7.83, 7.83, 7.57, 7.96, 7.96, 7.96, 7.57, 7.85, 7.85, 7.85, 7.59, 7.59, 7.87, 7.87, 8.24, 8.54, 8.87, 8.87, 8.87, 8.87, 8.85, 9.13, 9.08, 9.37, 9.42, 9.42, 9.73, 9.73, 10.04, 10.04, 10.35, 9.97, 9.86, 9.7, 9.7, 10.0, 10.0, 9.84, 9.74, 9.6, 9.36, 10.75, 9.06, 9.24, 9.66, 9.2, 8.99, 9.8, 9.6, 9.32, 9.45, 10.18, 9.64, 9.83, 9.83, 9.39, 4.4, 3.11, -0.0, 2.28, -0.0, -0.0, 7.59, 7.9, 6.95, 10.28, 10.73, 10.73, 11.62, 12.96, 11.06, 17.58, 20.65, 17.88, 12.66, 16.24, 21.82, 22.15, 18.57, 15.49, 13.01, 11.91, 12.07, 12.96, 13.33, 12.46, 11.6, 10.12, 9.17, 7.44, 6.0, 11.99, 12.3, 12.3, 12.45, 11.5, 7.57, 7.57, 7.57, 7.57, 7.57, 7.96, 7.96, 8.23, 8.23, 7.85, 7.59, 7.59, 7.59, 7.87, 7.87, 7.87, 7.87, 8.24, 8.24, 8.56, 8.56, 8.56, 8.85, 8.85, 8.82, 9.37, 9.37, 9.42, 9.73, 9.73, 10.04, 10.04, 10.35, 9.97, 9.97, 9.7, 9.7, 10.0, 9.84, 9.45, 9.27, 9.6, 9.03, 10.68, 9.42, 9.33, 9.49, 9.03, 9.2, 9.38, 9.2, 8.93, 9.45, 9.75, 9.13, 9.21, 9.39, 9.39, 4.2, 3.11, 2.39, 2.28, 4.8, 6.64, 6.95, 7.59, 7.59, 10.28, 10.73, 11.18, 11.18, 12.96, 10.43, 16.54, 22.6, 21.92, 14.18, 11.3, 16.51, 18.34, 16.3, 15.15, 15.2, 14.75, 13.44, 13.15, 13.15, 13.15, 12.89, 12.72, 12.72, 13.01, 13.01, 12.72, 13.41, 12.96, 13.15, 12.45, 7.57, 7.57, 7.57, 7.57, 7.57, 7.96, 8.23, 8.23, 8.23, 7.59, 7.59, 7.59, 7.87, 7.87, 7.87, 7.87, 7.6, 7.89, 8.24, 8.24, 8.24, 8.53, 8.53, 8.53, 8.82, 8.82, 9.37, 9.66, 9.42, 9.73, 9.73, 10.04, 10.04, 10.35, 9.97, 10.09, 9.7, 9.7, 9.84, 9.45, 9.27, 9.03, 9.03, 8.43, 10.68, 9.08, 9.6, 9.42, 8.55, 8.99, 8.8, 8.54, 8.63, 8.91, 8.91, 9.21, 8.77, 8.94, 6.64, 2.97, 3.11, 2.97, 2.4, 4.4, 7.27, 7.27, 6.95, 10.28, -0.0, -0.0, -0.0, 11.62, 0.0, 15.65, 17.59, 21.83, 21.59, 15.93, 11.17, 11.09, 12.45, 13.31, 13.41, 13.41, 12.58, 13.59, 14.16, 14.6, 14.16, 13.72, 13.67, 13.59, 13.44, 13.15, 12.72, 13.41, 12.96, 13.15, 6.92, 6.92, 7.59, 7.59, 7.85, 8.23, 8.23, 7.96, 7.96, 7.59, 7.87, 7.87, 7.87, 7.87, 7.87, 7.6, 7.6, 7.89, 7.95, 8.24, 8.24, 8.24, 8.24, 8.82, 8.82, 8.82, 9.12, 9.37, 9.66, 9.73, 9.73, 9.67, 9.67, 9.97, 9.97, 9.78, 10.09, 9.52, 9.52, 9.27, 9.27, 8.67, 8.67, 8.67, 8.3, 9.48, 9.03, 8.55, 7.87, 8.34, 7.96, 8.15, 8.63, 8.22, 8.48, 8.48, 8.33, 8.94, 8.0, 4.2, 2.97, 2.97, 4.8, 4.4, 4.4, 4.6, 8.8, 10.73, -0.0, -0.0, -0.0, 11.62, 0.0, 6.2, 14.84, 16.73, 25.89, 25.17, 13.86, 12.58, 12.27, 14.75, 13.72, 13.33, 13.31, 13.86, 14.3, 14.75, 14.75, 14.3, 14.3, 14.3, 13.44, 12.39, 12.72, 12.3, 12.96, 12.96, 7.19, 7.19, 7.59, 7.59, 7.59, 7.59, 7.96, 7.96, 8.24, 7.87, 7.87, 7.6, 7.6, 7.6, 7.6, 7.6, 7.89, 7.89, 7.61, 8.24, 8.24, 8.24, 8.53, 8.53, 8.53, 8.82, 9.12, 9.12, 9.42, 9.66, 9.73, 9.37, 9.67, 9.67, 9.78, 9.78, 10.09, 9.9, 9.52, 9.65, 9.27, 9.05, 8.67, 8.67, 8.93, 9.27, 8.82, 8.34, 7.64, 7.64, 7.64, 7.76, 7.76, 8.22, 7.6, 8.06, 7.47, 8.06, 8.94, 4.0, 4.2, 2.83, 2.69, 4.4, 4.4, 4.4, 7.27, 7.27, -0.0, -0.0, -0.0, 11.18, 0.0, 0.0, 4.66, 15.61, 21.55, 30.67, 25.89, 17.19, 16.3, 15.99, 16.51, 15.04, 13.25, 13.86, 13.86, 14.3, 14.6, 14.19, 14.3, 14.3, 13.86, 13.41, 12.96, 12.96, 12.96, 12.96, 6.94, 6.94, 6.94, 7.33, 7.59, 7.59, 8.24, 7.96, 7.96, 7.6, 7.6, 7.6, 7.6, 7.6, 7.89, 7.89, 7.89, 7.89, 7.61, 8.24, 8.24, 8.53, 8.53, 8.53, 8.53, 8.53, 9.46, 9.46, 9.12, 9.42, 9.73, 9.73, 9.67, 9.67, 9.78, 9.78, 10.09, 9.9, 9.9, 9.84, 9.65, 9.27, 9.27, 9.27, 9.27, 9.65, 9.6, 8.6, 8.4, 7.76, 7.76, 7.76, 7.76, 7.76, 7.6, 7.6, 6.9, 7.63, 8.49, 6.32, 4.0, 6.32, 4.96, 4.8, 4.4, 4.4, 7.27, 4.8, -0.0, -0.0, -0.0, 10.73, 0.0, 0.0, 2.63, 9.12, 17.35, 23.45, 28.88, 23.12, 19.31, 19.21, 17.23, 16.89, 14.08, 13.44, 14.3, 14.3, 13.75, 13.75, 12.87, 11.53, 6.2, 9.48, 10.79, 11.6, 11.6, 11.6, 6.94, 6.94, 6.94, 7.6, 7.6, 7.6, 7.6, 7.96, 7.96, 7.96, 7.6, 7.6, 7.89, 7.89, 7.89, 7.89, 7.89, 7.61, 7.61, 7.9, 7.9, 8.53, 8.53, 8.85, 8.85, 9.17, 9.17, 9.46, 9.46, 9.42, 9.42, 9.73, 9.67, 9.67, 9.97, 9.78, 10.09, 9.9, 9.9, 9.84, 9.65, 9.27, 9.27, 9.27, 9.27, 9.42, 9.42, 9.2, 8.6, 8.8, 8.15, 8.15, 7.44, 7.44, 7.44, 7.07, 7.28, 7.63, 8.05, 7.6, 6.01, 6.32, 4.96, 4.71, 4.8, 4.4, 6.95, 6.64, 3.25, -0.0, -0.0, 10.28, 5.0, 3.04, 6.0, 10.12, 15.78, 18.25, 21.92, 22.62, 22.08, 22.76, 22.57, 16.95, 15.71, 13.97, 14.1, 14.66, 14.6, 11.5, 11.9, 0.0, 0.0, 0.0, 3.14, 5.6, 5.6, 5.6, 6.94, 6.94, 6.94, 7.22, 7.6, 7.6, 7.6, 7.6, 7.96, 7.96, 7.89, 7.89, 7.89, 7.89, 7.89, 7.89, 7.61, 7.61, 7.61, 7.9, 7.9, 8.21, 8.53, 8.53, 9.17, 9.17, 9.17, 9.17, 9.77, 9.42, 9.42, 9.73, 9.37, 9.67, 9.67, 9.78, 9.78, 10.09, 9.9, 10.23, 9.84, 9.65, 9.65, 9.27, 9.27, 9.42, 9.2, 8.82, 9.2, 8.6, 8.8, 8.15, 8.15, 7.44, 7.44, 7.07, 7.28, 7.63, 8.05, 7.2, 7.6, 6.01, 7.44, 6.64, 6.32, 9.2, 8.8, 8.0, 8.8, 7.27, 10.28, 10.73, 8.22, 8.85, 12.72, 13.86, 14.9, 15.99, 17.25, 16.22, 18.72, 25.46, 26.05, 20.96, 17.99, 15.15, 15.98, 15.83, 14.3, 9.8, -4.24, -5.4, -3.04, -2.45, 0.0, 0.0, 0.0, 0.0, 6.94, 6.94, 6.96, 6.96, 6.96, 7.33, 7.33, 7.89, 8.24, 8.24, 7.95, 7.61, 7.61, 7.61, 7.61, 7.61, 7.61, 7.9, 7.9, 7.9, 7.9, 8.21, 8.21, 8.53, 8.84, 9.17, 9.17, 9.17, 9.5, 9.16, 9.16, 9.73, 9.37, 9.37, 9.67, 9.78, 9.78, 10.09, 9.9, 9.52, 9.84, 9.84, 9.84, 9.65, 9.27, 9.42, 9.42, 8.82, 8.82, 9.2, 8.6, 7.96, 8.4, 7.76, 7.07, 7.07, 7.28, 8.05, 8.05, 8.05, 7.63, 8.06, 7.07, 6.32, 6.32, 8.8, 6.64, 8.4, 6.95, 4.4, 10.28, 11.18, 8.22, 12.52, 12.96, 12.72, 14.03, 15.08, 14.39, 12.56, 14.66, 22.91, 26.23, 22.9, 19.52, 16.85, 15.34, 14.75, -13.86, -9.17, -7.51, -7.51, -6.21, -4.48, -2.93, 0.0, 0.0, 0.0, 6.7, 6.7, 6.96, 6.96, 6.96, 7.33, 7.61, 7.61, 7.61, 7.95, 7.95, 7.95, 7.61, 7.61, 7.61, 7.61, 7.9, 7.9, 7.9, 7.9, 7.9, 8.21, 8.21, 8.21, 8.53, 9.17, 9.17, 9.17, 9.16, 9.16, 9.16, 8.82, 9.14, 9.14, 9.46, 9.46, 9.78, 9.4, 9.52, 9.52, 9.52, 9.84, 9.84, 9.65, 9.65, 9.05, 9.42, 8.82, 8.82, 8.82, 8.6, 8.6, 8.21, 7.58, 7.76, 7.81, 8.06, 7.89, 8.05, 8.05, 7.6, 7.63, 7.07, 7.44, 6.32, 9.2, 8.8, 6.64, 4.4, 4.4, 4.6, 10.73, 11.62, 12.07, 12.52, 13.41, 13.86, 13.57, 12.27, 11.06, 13.23, 17.71, 21.55, 21.64, 20.94, 17.27, 14.9, -9.17, -12.04, -10.73, -10.73, -8.53, -8.22, -7.9, -6.2, -3.39, -3.39, -3.39, 6.7, 6.7, 6.96, 6.96, 6.96, 7.24, 7.61, 7.61, 7.61, 7.61, 7.95, 7.95, 7.95, 7.61, 7.61, 7.9, 7.9, 7.9, 7.9, 7.9, 7.9, 8.21, 8.21, 8.21, 8.21, 8.84, 8.84, 8.84, 9.16, 9.16, 9.16, 8.82, 9.14, 9.14, 9.14, 9.46, 9.09, 9.4, 9.19, 9.52, 9.52, 9.52, 9.84, 9.65, 9.65, 9.43, 9.05, 9.42, 8.82, 8.82, 8.43, 8.18, 8.21, 7.82, 8.0, 7.81, 8.17, 7.63, 7.89, 8.05, 8.05, 7.21, 7.63, 7.6, 7.6, 8.0, 4.0, 4.2, 2.97, 5.46, 6.95, 7.27, 7.9, 12.07, 12.52, 12.96, 13.41, 11.99, 11.17, 11.33, 12.73, 13.23, 13.53, 17.7, 21.97, 18.79, 0.0, -9.75, -11.62, -12.52, -11.71, -10.79, -8.58, -8.55, -8.18, -2.97, -2.97, -2.97, 6.96, 6.96, 6.96, 6.96, 6.96, 7.24, 7.33, 7.61, 7.61, 7.61, 7.95, 7.95, 7.95, 7.95, 8.24, 7.9, 7.9, 7.9, 7.9, 7.9, 8.21, 8.21, 8.21, 8.21, 8.21, 8.53, 8.84, 8.84, 9.16, 9.16, 8.82, 8.82, 9.14, 8.79, 8.53, 8.86, 8.86, 8.86, 9.19, 9.19, 9.52, 9.52, 9.52, 9.84, 9.65, 9.65, 9.05, 9.05, 8.82, 8.82, 8.82, 8.43, 8.05, 7.82, 8.17, 7.6, 7.95, 7.74, 7.63, 7.89, 8.05, 7.6, 7.37, 7.2, 7.2, 8.0, 4.0, 4.2, 4.2, 6.95, 6.95, 6.95, 8.8, 11.18, 12.07, 12.52, 12.96, 12.3, 11.53, 10.43, 11.33, 10.43, 9.09, 14.82, 24.76, 18.78, 12.79, -10.73, -0.0, -0.0, -0.0, -11.03, -9.3, -7.59, -5.7, -2.39, -2.39, -2.39, 6.96, 6.96, 6.96, 6.96, 6.7, 6.97, 6.97, 7.33, 7.33, 7.61, 7.93, 8.24, 8.24, 8.24, 8.24, 8.24, 7.9, 7.9, 7.9, 7.9, 8.21, 8.21, 8.21, 8.21, 8.53, 8.53, 8.84, 8.84, 8.84, 8.82, 8.82, 8.82, 8.53, 8.53, 8.53, 8.86, 8.86, 8.86, 9.19, 9.19, 9.19, 9.52, 9.52, 9.52, 9.65, 9.65, 9.05, 9.05, 9.05, 8.82, 8.82, 8.43, 8.43, 7.82, 7.82, 7.6, 7.95, 7.4, 7.63, 7.89, 8.05, 7.6, 7.6, 7.37, 7.37, 5.95, 6.64, 4.2, 4.2, 6.95, 7.27, 7.27, 7.27, 8.8, 11.18, 11.62, 12.52, 12.96, 11.99, 11.53, 11.44, 10.12, 11.17, 15.91, 27.22, 20.56, 15.27, -12.07, 10.73, 10.73, 7.9, 11.18, -5.2, -5.0, -4.8, -1.93, -1.93, -1.93, 6.96, 6.96, 6.96, 6.96, 6.7, 6.97, 6.97, 6.97, 7.33, 7.61, 7.93, 8.24, 8.24, 8.24, 8.24, 8.24, 7.9, 7.9, 7.9, 8.21, 8.21, 8.21, 8.21, 8.53, 8.84, 8.84, 8.84, 8.52, 8.52, 8.82, 8.82, 8.21, 8.53, 8.53, 8.53, 8.86, 8.86, 8.86, 8.86, 9.19, 9.19, 9.19, 9.19, 9.52, 9.3, 9.3, 9.05, 9.05, 9.05, 8.42, 8.82, 8.43, 8.43, 7.82, 7.82, 7.76, 7.6, 7.95, 7.74, 7.94, 7.45, 7.6, 7.6, 7.6, 7.37, 7.21, 8.4, 6.64, 9.83, 9.39, 9.83, 10.28, 10.28, 10.28, 10.28, 11.18, 12.07, 12.52, 12.96, 12.96, 9.48, 9.8, 12.65, 27.21, 27.72, 19.67, 16.05, -9.17, -8.22, -4.6, 0.0, 0.0, -3.68, -5.2, -2.6, -7.27, -7.27, -7.27, 6.96, 6.96, 6.96, 6.96, 6.7, 6.97, 6.97, 6.97, 6.97, 7.61, 7.61, 8.24, 8.24, 8.24, 8.24, 8.24, 8.24, 7.9, 8.21, 8.21, 8.21, 8.21, 8.21, 8.84, 8.52, 8.52, 8.52, 8.52, 8.82, 8.54, 8.21, 8.53, 8.53, 8.53, 8.53, 8.86, 8.86, 8.86, 8.86, 9.19, 9.19, 9.19, 9.19, 9.19, 9.52, 9.3, 9.04, 9.05, 9.05, 8.42, 8.42, 8.43, 8.05, 7.82, 7.82, 7.76, 7.6, 7.95, 7.74, 7.63, 7.45, 7.6, 7.6, 7.6, 7.6, 7.6, 7.6, 7.6, 10.28, 10.28, 0.0, 7.27, 7.27, 10.28, -0.0, -0.0, 11.62, 0.0, 12.52, 12.52, 12.96, 9.8, 17.39, 25.7, 26.51, 18.78, 13.59, -7.19, -5.4, -5.2, -5.0, 0.0, -3.53, -5.0, -10.73, -7.27, -7.27, -7.27, 6.96, 6.96, 6.96, 6.96, 6.7, 6.97, 6.97, 6.97, 6.97, 6.97, 7.61, 7.9, 8.24, 8.24, 8.24, 8.24, 8.24, 8.21, 8.21, 8.21, 8.21, 8.21, 8.21, 8.52, 8.52, 8.52, 8.52, 8.82, 8.49, 8.21, 8.21, 8.53, 8.53, 8.53, 8.86, 8.86, 8.86, 8.86, 8.86, 9.19, 9.19, 9.19, 9.19, 9.19, 9.19, 9.3, 9.3, 8.68, 9.05, 9.05, 8.42, 8.82, 8.05, 8.05, 7.82, 7.42, 7.6, 7.6, 7.4, 7.74, 7.63, 7.45, 7.6, 7.6, 8.05, 8.05, 8.05, 8.05, 10.28, 0.0, 0.0, 0.0, 7.59, 10.28, -0.0, 9.83, 10.73, 0.0, 0.0, 0.0, 0.0, 13.41, 16.1, 20.96, 25.32, 16.96, -6.2, -6.44, -3.98, -5.0, -7.9, 11.62, -11.62, -10.0, -6.71, -5.46, -5.46, -5.46, 6.96, 6.96, 6.96, 6.96, 6.7, 6.97, 6.97, 6.97, 6.97, 6.97, 6.97, 7.61, 7.61, 8.24, 8.24, 8.53, 8.22, 7.91, 7.91, 7.91, 7.91, 7.91, 7.91, 8.52, 8.52, 8.52, 8.19, 8.49, 8.49, 8.21, 8.21, 8.53, 8.53, 8.53, 8.86, 8.86, 8.86, 8.86, 9.19, 9.19, 9.19, 9.19, 8.82, 8.82, 8.82, 8.93, 8.93, 8.68, 9.05, 9.05, 8.67, 8.42, 8.05, 8.05, 7.82, 7.82, 7.76, 7.6, 7.53, 7.4, 7.63, 7.94, 7.94, 7.89, 8.05, 8.05, 8.49, 8.49, 8.49, 7.59, 0.0, 0.0, 0.0, 10.28, 10.28, 10.28, 10.28, 0.0, 0.0, 0.0, 0.0, 14.3, 14.88, 18.02, 25.59, 24.59, -11.38, -5.98, -3.53, -2.71, -8.22, -0.0, -0.0, -0.0, -3.53, -4.05, -4.05, -4.05, 6.56, 6.56, 6.96, 6.96, 6.7, 6.97, 6.97, 6.97, 6.97, 6.97, 6.97, 7.26, 7.61, 7.61, 8.22, 8.22, 8.22, 8.22, 7.91, 7.91, 7.91, 7.91, 7.91, 8.52, 8.52, 8.19, 8.49, 8.49, 8.49, 8.21, 8.53, 8.53, 8.53, 8.19, 8.5, 8.5, 8.86, 8.86, 8.86, 9.19, 9.19, 8.82, 8.82, 8.82, 8.58, 8.93, 8.93, 8.93, 9.05, 9.05, 8.67, 8.43, 8.05, 8.05, 8.0, 7.82, 7.42, 7.6, 7.6, 7.4, 7.74, 7.63, 7.63, 7.94, 7.89, 8.33, 8.24, 8.24, 8.24, 9.2, 4.6, 0.0, 0.0, 9.83, 9.83, 9.83, 8.8, 7.27, 3.39, 0.0, -5.8, 0.0, 15.65, 19.22, 25.57, 27.72, 0.0, -5.64, 0.0, 0.0, -0.0, -0.0, 1.71, 1.44, -0.0, -2.42, -2.42, -2.42, 6.56, 6.56, 6.56, 6.96, 6.7, 6.97, 6.97, 6.97, 6.97, 6.97, 6.97, 6.97, 7.26, 7.61, 7.61, 8.22, 8.22, 8.22, 7.91, 7.91, 7.91, 7.91, 7.91, 8.19, 8.19, 8.19, 8.49, 8.49, 8.49, 7.88, 8.19, 8.19, 8.19, 8.19, 8.5, 8.5, 8.5, 8.86, 8.86, 9.19, 9.19, 8.82, 8.82, 8.82, 8.58, 8.93, 8.93, 8.93, 9.27, 9.05, 8.67, 8.3, 8.63, 8.05, 7.67, 7.82, 7.42, 7.6, 7.6, 7.95, 7.4, 7.74, 7.74, 8.06, 8.06, 8.38, 8.77, 8.3, 8.0, 7.27, 4.6, 0.0, 0.0, 0.0, 0.0, 4.2, 6.64, 6.64, 7.27, 0.0, 0.0, 0.0, 10.43, 16.19, 23.69, 27.72, 18.26, 5.81, 7.51, 10.4, 8.22, -0.0, -0.0, 1.71, -0.0, -1.28, -1.28, -1.28, 6.31, 6.31, 6.56, 6.7, 6.7, 6.97, 6.97, 6.97, 6.97, 6.97, 7.26, 7.26, 7.26, 7.26, 7.61, 7.61, 7.91, 8.22, 8.22, 8.22, 7.91, 7.91, 7.6, 8.19, 8.19, 8.19, 8.49, 8.49, 7.88, 7.88, 8.19, 8.19, 8.19, 8.19, 8.5, 8.5, 8.5, 8.5, 8.5, 8.5, 8.82, 8.82, 8.82, 8.58, 8.93, 8.93, 8.93, 8.93, 8.93, 9.27, 8.88, 8.3, 8.63, 8.24, 7.67, 8.0, 7.42, 7.42, 7.6, 7.6, 7.95, 7.95, 7.81, 7.81, 8.06, 8.06, 8.48, 8.3, 8.3, 7.67, 5.63, 0.0, -3.25, 0.0, 0.0, 2.97, 4.2, 6.95, 9.75, 10.4, 12.52, 0.0, 10.43, 15.36, 22.26, 27.72, 19.67, 15.61, 13.75, 13.31, 12.52, 8.53, -0.0, -0.0, -0.0, -0.0, -0.0, -0.0, 6.31, 6.31, 6.31, 6.31, 6.7, 6.97, 6.97, 6.97, 6.97, 7.26, 7.26, 7.26, 7.26, 7.26, 7.26, 7.61, 7.91, 7.91, 8.22, 7.9, 7.9, 7.9, 7.6, 7.6, 8.19, 8.19, 8.49, 8.49, 7.88, 7.88, 8.19, 8.19, 8.19, 8.19, 8.5, 8.5, 8.5, 8.5, 8.5, 8.5, 8.82, 8.82, 8.82, 8.58, 8.93, 8.93, 8.93, 8.93, 9.27, 9.27, 8.88, 8.49, 8.3, 8.24, 8.24, 7.67, 8.0, 7.42, 7.76, 7.76, 7.6, 7.6, 7.6, 7.81, 7.81, 8.06, 8.48, 8.48, 8.0, 8.0, 6.64, 0.0, 0.0, 0.0, 0.0, 0.0, 3.11, 6.95, 9.75, 9.6, 8.53, 5.8, 7.93, 13.42, 20.6, 27.72, 21.84, 15.83, 14.11, 13.67, 12.22, 11.62, 2.93, -0.0, -0.0, -0.0, -0.0, -0.0, 6.31, 6.31, 6.31, 6.31, 6.58, 6.97, 6.97, 6.97, 6.97, 7.26, 7.26, 7.26, 7.26, 7.26, 7.26, 6.98, 7.32, 7.6, 7.6, 7.9, 7.9, 7.9, 7.9, 7.9, 7.9, 7.9, 8.21, 8.21, 7.88, 8.19, 8.19, 8.19, 8.19, 8.19, 8.5, 8.5, 8.5, 8.5, 8.5, 8.82, 8.82, 8.82, 8.82, 8.93, 8.93, 8.93, 8.93, 8.93, 9.27, 8.88, 8.88, 8.49, 8.3, 8.24, 8.24, 7.85, 8.0, 8.0, 7.82, 7.76, 7.76, 7.76, 7.6, 7.6, 7.81, 7.81, 8.22, 8.22, 8.0, 8.0, 7.81, 6.64, 3.49, 0.0, 0.0, 0.0, 5.46, 5.46, 8.55, 7.59, 8.22, 9.17, 7.69, 12.65, 17.81, 25.03, 23.9, 18.05, 14.6, 13.77, 12.79, 11.99, 9.17, 2.45, -0.0, -0.0, -0.0, -0.0, 6.31, 6.31, 6.31, 6.31, 6.58, 6.97, 6.97, 6.97, 6.97, 7.26, 7.26, 7.26, 7.26, 7.26, 7.26, 6.98, 7.32, 7.6, 7.6, 7.9, 7.9, 7.9, 7.9, 7.9, 7.9, 7.9, 8.21, 8.21, 7.88, 8.19, 8.19, 8.19, 8.19, 8.19, 8.5, 8.5, 8.5, 8.5, 8.5, 8.82, 8.82, 8.82, 8.82, 8.93, 8.93, 8.93, 8.93, 8.93, 9.27, 8.88, 8.88, 8.49, 8.3, 8.24, 8.24, 7.85, 8.0, 8.0, 7.82, 7.76, 7.76, 7.76, 7.6, 7.6, 7.81, 7.81, 8.22, 8.22, 8.0, 8.0, 7.81, 6.64, 3.49, 0.0, 0.0, 0.0, 5.46, 5.46, 8.55, 7.59, 8.22, 6.94, 8.05, 12.27, 15.07, 20.05, 23.63, 20.6, 18.24, 14.94, 13.59, 12.6, 11.88, 10.47, 2.45, -0.0, -0.0, -0.0]}, {"header": {"dx": 0.06612293990616946, "dy": 0.0552356325346848, "nx": 98, "ny": 59, "la1": 35.046912555036876, "la2": 31.78801023549047, "lo1": -121.43107172385933, "lo2": -114.95102361305473, "refTime": "2026041605", "parameterCategory": 1, "parameterNumber": 3}, "data": [-15.16, -15.16, -15.16, -14.59, -14.02, -13.09, -12.57, -11.97, -11.68, -11.1, -10.15, -9.62, -10.82, -9.17, -8.53, 0.0, 0.0, -11.18, -11.62, -12.52, -12.96, -12.96, -10.4, -5.0, -5.0, -5.2, -3.82, -3.96, -10.04, -11.71, -12.14, -12.58, -11.2, -7.9, -6.17, -5.9, -4.83, -3.49, -4.2, -9.2, -9.7, -10.6, -10.4, -9.16, -8.23, -8.5, -10.91, -7.36, 2.63, 12.39, 10.86, 11.1, 10.75, 11.06, 11.06, 9.91, 9.39, 8.91, 8.65, 7.73, 7.73, 8.18, 8.68, 8.94, 8.15, 7.93, 7.5, 7.1, 7.15, 7.57, 7.63, 8.4, 7.49, 6.47, 6.02, 6.56, 5.81, 4.76, 3.38, 2.72, 3.93, 11.16, 12.96, 12.52, 0.0, 0.0, -8.53, -3.53, -5.0, -3.53, -4.39, -5.28, -2.28, 2.89, 12.65, 12.79, 11.6, 11.26, -15.16, -15.16, -15.16, -14.59, -14.23, -13.44, -12.51, -11.97, -11.63, -11.33, -10.76, -10.94, -10.12, -8.85, -9.17, -8.53, 0.0, -12.07, -12.07, -11.62, -13.41, -12.96, -12.3, -11.6, -3.39, -3.53, -3.68, -3.82, -10.04, -12.52, -14.3, -13.86, -12.14, -8.18, -5.69, -5.36, -4.14, -4.6, -4.83, -6.17, -11.62, -12.72, -10.99, -10.55, -11.76, -12.38, -8.61, 0.0, 12.87, 11.33, 11.2, 11.44, 10.75, 10.75, 10.75, 10.47, 9.91, 9.12, 8.65, 7.73, 7.73, 8.18, 8.41, 8.15, 8.15, 7.69, 7.1, 7.1, 6.8, 7.2, 7.84, 7.2, 6.66, 6.29, 5.85, 5.3, 4.96, 4.76, 3.38, 2.72, 3.93, 11.16, 12.96, 12.52, 0.0, 0.0, -8.53, -3.53, -5.0, -3.53, -4.39, -5.28, -2.28, 2.89, 12.65, 12.79, 11.6, 11.26, -15.16, -15.16, -15.16, -14.79, -14.59, -14.02, -13.09, -12.26, -11.63, -11.33, -11.01, -9.46, -9.96, -7.24, -6.45, -5.2, -5.2, -11.62, -12.07, -12.96, -11.62, -12.52, -12.52, -13.41, -13.15, -5.95, -3.39, -3.39, -7.9, -11.62, -14.47, -14.9, -14.3, -11.18, -7.6, -6.32, -5.31, -4.96, -5.72, -7.44, -9.66, -10.63, -11.53, -12.87, -11.76, -9.24, -2.13, 11.5, 11.33, 10.75, 11.54, 10.75, 10.75, 10.75, 10.43, 10.75, 9.62, 8.43, 7.73, 7.73, 8.18, 8.41, 8.15, 8.15, 7.69, 7.93, 7.32, 7.76, 7.76, 7.63, 7.2, 6.74, 6.02, 4.81, 3.88, 3.58, 3.18, 4.29, 2.81, 1.63, 1.3, 6.0, 11.6, 8.53, 11.62, 11.62, 7.9, 0.0, -4.15, -6.21, -7.1, -5.48, 0.0, 10.43, 13.57, 12.89, 11.92, 11.2, -15.16, -15.16, -15.16, -14.79, -14.59, -13.95, -13.44, -12.86, -12.22, -11.58, -10.94, -10.31, -10.41, -9.08, -8.22, -6.45, -3.68, -8.53, -11.62, -11.71, -10.84, -11.18, -11.18, -11.18, -12.07, -12.96, -7.27, -3.11, -6.95, -11.18, -11.61, -13.32, -15.04, -15.65, -12.14, -8.58, -7.27, -7.59, -7.68, -9.08, -10.01, -10.9, -10.37, -8.85, -6.63, 0.0, 7.69, 10.12, 10.43, 10.43, 10.43, 10.75, 10.43, 11.1, 11.1, 9.8, 9.22, 8.18, 6.99, 7.21, 7.43, 8.41, 8.41, 8.15, 7.69, 7.43, 7.42, 8.46, 10.13, 9.92, 8.51, 6.62, 5.26, 4.05, 2.35, 0.0, 0.0, 0.0, 1.51, 0.0, 1.11, 2.63, 4.1, 8.22, 10.0, 11.62, 6.7, 0.0, -5.0, -8.05, -2.5, 2.89, 11.09, 13.23, 12.83, 13.09, 12.3, 11.44, -15.16, -15.16, -15.16, -14.79, -14.59, -14.3, -13.73, -13.44, -11.92, -11.28, -10.59, -10.23, -10.04, -9.97, -7.9, -8.22, -8.22, -6.45, -11.03, -11.71, -12.58, -12.14, -11.62, -11.62, -10.58, -11.71, -12.52, -11.45, -10.6, -10.28, -10.62, -10.84, -11.13, -12.31, -14.19, -13.39, -13.97, -11.09, -9.92, -9.92, -10.48, -8.44, -4.98, 0.0, 1.72, 4.87, 6.4, 8.31, 9.6, 9.89, 10.43, 10.12, 10.86, 11.2, 11.1, 9.06, 8.46, 7.92, 7.43, 6.4, 6.85, 7.95, 7.95, 8.46, 7.92, 8.88, 9.12, 10.33, 11.73, 12.43, 10.42, 8.37, 8.58, 6.87, 3.52, 0.0, -2.48, -3.22, -0.86, 0.0, 0.0, 0.0, 0.0, 0.0, -0.0, 0.0, -2.93, -3.19, -6.51, -7.82, 8.58, 11.6, 12.04, 12.96, 12.9, 12.85, 11.33, 10.61, -15.44, -15.16, -15.16, -14.79, -14.59, -14.59, -13.95, -13.66, -12.51, -11.87, -10.59, -9.76, -9.66, -8.22, -7.9, -7.9, -7.9, -8.22, -10.0, -11.62, -11.28, -11.78, -13.23, -13.15, -12.14, -11.84, -11.84, -12.07, -12.96, -12.07, -9.83, -10.28, -10.2, -10.28, -12.04, -13.5, -12.72, -10.41, -8.94, -9.48, -11.2, -4.52, 0.0, 0.0, 0.0, 3.2, 6.6, 8.31, 9.31, 9.16, 9.8, 10.65, 9.8, 10.12, 9.6, 8.18, 6.6, 6.6, 6.6, 5.99, 5.73, 6.51, 8.18, 7.82, 9.23, 10.61, 10.89, 10.99, 10.76, 11.69, 10.74, 9.41, 9.29, 8.78, 6.1, 4.26, 0.0, -3.14, -1.83, 0.0, 0.0, -4.32, -4.15, -5.2, -11.62, -11.4, -9.42, -8.23, -8.85, 0.0, 12.96, 13.31, 13.33, 12.88, 12.71, 12.25, 10.99, 10.19, -15.06, -14.79, -14.79, -14.79, -14.59, -14.59, -14.23, -14.02, -13.09, -11.87, -10.23, -9.48, -9.3, -6.71, -7.24, -5.95, -6.71, -9.08, -9.67, -10.27, -11.02, -11.51, -10.6, -11.34, -12.14, -11.28, -11.28, -12.0, -12.42, -10.65, -11.18, -9.83, -9.83, -8.91, -10.78, -12.63, -11.96, -11.37, -9.67, -8.55, -8.85, -4.1, -6.4, -4.81, 0.0, 8.43, 10.47, 9.89, 9.02, 8.66, 10.12, 9.8, 10.12, 9.6, 7.58, 7.34, 5.81, 5.81, 4.89, 4.38, 4.98, 5.45, 8.06, 10.47, 11.7, 10.99, 10.61, 9.23, 8.05, 7.49, 6.13, 6.22, 5.07, 3.79, 3.69, 3.69, 2.8, 1.48, 2.2, 0.0, -1.91, -7.26, -8.53, -9.42, -11.21, -12.14, -12.39, -11.29, -11.9, 13.41, 13.23, 13.41, 13.41, 13.41, 13.15, 11.6, 10.19, 9.82, -15.06, -15.06, -14.79, -14.79, -14.59, -14.59, -14.23, -13.66, -13.3, -12.37, -10.51, -9.88, -9.46, -7.26, -7.54, -6.7, -7.26, -7.73, -8.93, -8.22, -2.71, 0.0, -7.24, -12.07, -10.96, -10.04, -10.04, -10.18, -10.4, -10.0, -10.6, -11.4, -11.18, -10.32, -10.32, -10.43, -9.83, -10.38, -11.2, -8.22, 0.0, 0.0, -5.6, -6.2, 10.43, 15.27, 13.02, 10.47, 8.85, 10.12, 7.82, 9.48, 9.8, 8.05, 7.34, 6.2, 5.63, 4.38, 3.85, 3.73, 3.82, 5.28, 9.49, 12.02, 12.22, 11.19, 9.12, 5.35, 1.34, 0.0, 0.0, 0.0, 0.0, -0.98, 0.0, 0.0, 1.77, 3.68, 3.14, 1.02, 0.0, -8.85, -10.55, -10.94, -11.44, -12.45, -11.77, -11.5, -12.04, 12.96, 12.79, 12.46, 13.33, 13.86, 12.72, 10.61, 9.16, 8.93, -15.06, -15.06, -15.06, -14.79, -14.59, -14.59, -14.23, -13.66, -13.58, -12.37, -11.07, -10.8, -11.6, -11.39, -10.04, -9.16, -9.16, -9.16, -9.08, -6.2, 0.0, 0.0, 0.0, -3.82, -10.35, -12.52, -9.21, -8.18, -8.72, -9.86, -10.22, -11.62, -12.47, -11.4, -10.68, -9.85, -9.96, -10.73, -11.62, 0.0, -0.0, 8.85, -0.0, -0.0, 14.3, 13.86, 11.38, 9.42, 10.3, 9.89, 10.43, 9.17, 9.48, 8.05, 6.88, 4.87, 3.36, 2.81, 1.38, 1.33, 3.44, 6.8, 12.16, 12.22, 11.38, 8.25, 5.51, 2.45, -1.34, -3.58, -3.62, -4.26, -4.54, -4.03, -3.09, -2.35, 0.0, 0.0, 0.89, 0.8, 0.79, -6.65, -13.39, -13.15, -11.87, -11.62, -11.12, -10.37, -5.6, 12.96, 12.83, 12.66, 12.66, 13.41, 12.56, 10.01, 8.82, 9.27, -14.68, -14.68, -15.06, -14.79, -14.59, -14.23, -14.23, -13.66, -13.01, -12.56, -11.99, -11.88, -11.22, -11.82, -11.92, -11.36, -11.77, -12.1, -11.45, -10.91, -10.41, -10.27, -8.93, -8.22, -7.9, -10.0, -9.83, -8.8, -9.6, -10.7, -10.73, -11.18, -9.83, -10.73, -11.62, -11.62, -10.73, -8.94, -0.0, -0.0, 8.53, -0.0, -0.0, -0.0, 0.0, 0.0, 0.0, 6.4, 8.68, 11.06, 11.33, 10.43, 9.16, 6.88, 5.46, 2.02, 0.0, 0.0, 0.0, 0.0, 6.6, 13.23, 14.95, 13.39, 11.38, 7.8, 4.7, 2.45, -3.65, -7.36, -7.59, -7.42, -6.74, -5.78, -4.95, -4.38, -4.98, -4.32, -2.71, -0.89, 0.0, 3.24, -14.79, -15.65, -13.32, -11.99, -10.65, -4.87, 2.2, 11.12, 12.96, 12.39, 11.87, 12.96, 12.3, 9.62, 8.85, 8.85, -14.68, -14.51, -14.51, -14.59, -14.59, -14.23, -14.23, -13.58, -13.3, -12.82, -12.27, -12.27, -12.27, -12.27, -11.99, -12.56, -13.52, -13.51, -14.31, -14.47, -15.47, -15.45, -14.36, -12.04, -12.58, -10.52, -9.97, -6.95, -9.83, -9.7, -10.08, -6.64, -0.0, 3.11, -5.46, -10.4, -10.4, -0.0, -0.0, 0.0, 12.96, 12.52, 0.0, 0.0, 0.0, 0.0, 0.0, 11.2, 10.79, 12.45, 13.19, 12.36, 10.3, 8.93, 7.2, 4.54, 2.34, 0.0, 0.0, 6.0, 16.54, 15.99, 14.79, 13.65, 13.39, 14.11, 12.66, 8.0, 0.0, -6.44, -9.8, -9.06, -9.23, -8.28, -7.82, -5.55, -5.98, -6.5, -7.1, -4.81, 0.0, 6.47, 7.71, -14.13, -14.39, -8.85, -2.5, 0.0, 4.52, 8.38, 11.62, 12.27, 11.62, 12.52, 11.21, 9.17, 8.1, 9.17, -14.51, -14.51, -14.51, -14.51, -14.23, -14.23, -13.66, -13.58, -12.93, -12.82, -12.82, -12.82, -12.73, -11.8, -10.35, -10.79, -9.76, -10.8, -12.04, -13.15, -13.64, -14.08, -13.94, -15.53, -13.15, -12.52, -12.07, 6.01, 7.59, -3.39, -2.71, -0.0, 2.6, 4.6, -0.0, -2.6, -5.95, -0.0, -0.0, 0.0, 12.52, 12.07, 11.62, 0.0, 0.0, 0.0, 12.07, 12.52, 12.96, 13.15, 12.79, 13.23, 13.28, 12.57, 12.01, 8.6, 11.16, 6.97, 0.0, 13.86, 17.79, 17.68, 16.38, 15.53, 15.91, 18.48, 20.86, 20.39, 17.25, 13.59, 3.58, -6.2, -9.44, -10.75, -8.3, -5.69, -6.45, -6.6, -4.95, 0.0, 7.2, 10.05, 8.25, 4.91, 3.68, 3.16, 2.16, 1.89, 3.58, 7.69, 8.85, 11.62, 11.03, 11.62, 11.2, 9.17, 9.17, 10.37, -14.4, -14.51, -14.51, -14.51, -14.23, -14.23, -13.66, -13.58, -12.93, -12.82, -12.82, -12.93, -12.93, -12.09, -11.03, -10.06, -9.53, -10.03, -10.38, -10.65, -9.62, -7.06, -2.98, -1.63, -1.77, -1.96, 0.0, 9.17, 6.7, 2.7, -0.0, -0.0, 2.1, 2.49, 3.25, 3.25, 3.25, 7.9, 7.9, 7.9, 11.62, 11.62, 11.18, 0.0, 0.0, 7.59, 10.4, 10.8, 12.96, 13.41, 8.85, 6.0, 0.0, 4.81, 5.37, 5.8, 11.16, 10.2, 0.0, 11.71, 16.01, 16.27, 16.91, 16.05, 18.33, 20.12, 22.13, 24.29, 23.55, 23.24, 19.41, 18.79, 0.0, -9.67, -5.9, -5.98, -3.58, 0.0, 7.2, 7.4, 7.2, 6.14, 3.16, 1.65, 6.9, 7.63, 5.65, 3.88, 7.2, 7.1, 6.2, 5.2, 11.18, 11.62, 11.87, 9.17, 11.6, 11.99, -14.4, -14.13, -14.51, -14.51, -14.51, -14.23, -13.94, -13.21, -12.93, -12.56, -12.56, -12.56, -12.93, -12.45, -11.87, -10.36, -9.83, -9.48, -8.91, -8.66, -6.78, -4.52, -1.72, -1.63, -1.58, -1.77, -1.06, -3.36, -9.48, -0.0, -0.0, -0.0, 2.71, -0.0, 3.11, 6.95, 6.95, 9.2, 10.28, -0.0, -0.0, -0.0, 0.0, 0.0, 0.0, 9.2, 8.4, 7.9, -0.0, -8.85, -12.52, -12.07, -12.07, 0.0, 0.0, -8.85, 0.0, 0.0, 0.0, 13.15, 12.39, 15.65, 16.54, 16.99, 16.47, 16.22, 17.1, 18.78, 19.92, 17.8, 21.19, 22.35, 17.78, 10.28, -5.0, 0.0, 7.4, 10.46, 9.42, 8.43, 5.37, 0.0, 0.0, -1.68, 3.79, 4.75, 4.34, 5.27, 6.87, 8.21, 6.4, 2.19, 7.9, 12.52, 11.87, 9.17, 12.96, 12.3, -14.4, -14.13, -14.13, -14.51, -14.51, -14.13, -13.58, -13.21, -12.93, -12.93, -12.56, -12.37, -12.93, -12.45, -11.87, -10.36, -10.09, -9.8, -9.32, -8.78, -7.63, -6.79, -5.81, -4.73, -4.11, -3.53, -3.91, -3.81, -5.45, -4.24, 0.0, 7.27, -0.0, -0.0, 7.27, 9.75, 10.73, 9.83, 11.18, 0.0, 0.0, 0.0, -9.83, 0.0, 9.83, 9.33, 8.8, 10.28, -0.0, -0.0, -11.62, -11.18, 0.0, 0.0, 0.0, 0.0, -11.62, -9.8, -3.59, 17.43, 11.6, 12.3, 13.15, 14.3, 13.99, 14.42, 11.7, 16.99, 0.0, 14.22, 20.56, 21.17, 20.56, 12.52, 9.48, 11.7, 10.89, 10.39, 7.6, 5.96, 4.23, 0.0, 0.0, -2.2, -7.78, -2.5, 0.0, 3.49, 7.2, 8.21, 9.0, 5.28, 8.22, 12.14, 11.99, 11.6, 12.3, 12.3, -14.4, -14.13, -14.13, -14.13, -14.13, -14.13, -13.58, -13.48, -12.93, -12.93, -12.93, -12.37, -12.45, -12.09, -11.52, -10.65, -10.09, -9.8, -9.8, -9.36, -8.95, -7.93, -6.73, -6.05, -5.48, -4.24, -3.53, -3.91, -3.68, -3.53, -3.68, 0.0, 0.0, 0.0, 9.2, 8.67, 10.28, 10.28, 10.73, 0.0, 0.0, 0.0, 0.0, 6.95, 9.83, 8.91, 9.33, 10.28, 10.28, 0.0, 0.0, 0.0, 0.0, 7.59, 6.64, 0.0, -7.27, -6.45, 0.0, 13.02, 12.07, 11.62, 11.62, 12.07, 0.0, 0.0, -9.17, -15.2, 16.09, 17.59, 12.87, 15.62, 18.78, 17.81, 12.16, 15.25, 14.47, 13.28, 11.0, 11.73, 11.73, 11.0, 7.6, 0.0, -11.45, -11.18, -6.9, 0.0, 5.8, 8.66, 9.39, 8.3, 10.37, 10.47, 8.85, 9.66, 11.2, 11.2, -14.4, -14.4, -14.13, -14.13, -14.13, -13.58, -13.58, -13.48, -13.3, -12.93, -12.93, -12.37, -12.09, -12.16, -11.23, -10.65, -10.06, -9.46, -9.48, -8.73, -7.79, -7.44, -6.27, -4.79, -4.11, -2.68, -2.76, -2.89, -3.2, -3.47, -3.94, -3.41, -2.71, 0.0, 8.94, 9.39, 9.83, 10.73, 9.2, 0.0, 0.0, 0.0, 0.0, 6.32, 9.83, 9.83, 9.2, 10.28, 10.28, 10.28, 9.2, 9.6, 7.9, 7.59, 7.59, 3.25, 0.0, 2.6, 7.24, 10.37, 11.2, 10.6, 9.6, 4.8, 0.0, 0.0, 0.0, -11.62, -0.0, -0.0, -5.31, -11.0, -12.64, 0.0, 16.96, 18.05, 17.5, 16.37, 15.36, 15.62, 15.99, 14.51, 13.59, 12.65, 0.0, -11.62, -11.84, 9.17, 9.48, 7.69, 7.06, 7.44, 7.82, 9.17, 8.1, 9.42, 10.73, 10.73, -14.4, -14.4, -14.4, -14.13, -13.58, -13.58, -13.85, -13.48, -13.3, -12.93, -12.73, -12.37, -12.37, -11.44, -11.16, -10.3, -10.06, -9.48, -8.85, -7.67, -6.67, -6.57, -5.71, -3.59, -1.99, -1.3, -2.05, -2.72, -2.84, -3.87, -4.16, -4.24, -3.96, -2.71, 2.1, 9.2, 9.83, 7.27, 0.0, 0.0, 0.0, 0.0, 0.0, 0.0, 7.27, 10.28, 10.73, 10.28, 9.2, 9.2, 9.2, 7.27, 7.27, 7.27, 5.7, 5.7, 4.6, 6.44, 8.94, 7.9, 8.53, 8.22, 4.8, 0.0, 3.39, 8.8, 6.64, -9.2, -11.71, -13.99, -14.22, -13.91, -18.66, 0.0, 17.43, 16.99, 16.44, 14.82, 14.7, 15.02, 13.39, 12.64, 10.73, 0.0, -3.96, -3.96, 0.0, 9.17, 7.44, 5.31, 6.4, 7.19, 5.77, 7.54, 9.17, 10.12, 8.85, 8.85, -14.03, -14.03, -14.03, -13.85, -13.85, -13.85, -13.85, -13.48, -13.01, -12.65, -12.45, -12.37, -11.8, -11.16, -11.07, -11.34, -10.59, -10.06, -8.54, -7.09, -6.0, -6.87, -6.48, -5.16, -3.96, -3.65, -3.9, -4.38, -4.51, -5.28, -5.55, -4.81, -4.81, -2.62, 1.84, 4.8, 3.25, 0.0, 0.0, 0.0, 0.0, -3.25, 0.0, 0.0, 5.2, 9.6, 9.6, 9.2, 9.2, 9.2, 7.27, 7.27, 7.27, 8.55, 9.2, 8.23, 7.27, 7.9, 7.24, 6.97, 6.45, 3.68, 3.53, 0.0, 8.8, 8.91, 8.4, -4.6, -5.52, -6.4, -4.34, 0.0, 3.82, 5.96, 4.12, 3.79, 0.0, 0.0, 2.11, 6.12, 2.79, 0.0, -2.28, -1.77, -2.2, 0.0, 0.0, 2.54, 0.0, 0.0, 2.81, 4.71, 4.24, 5.2, 9.8, 10.12, 8.66, 8.66, -14.03, -14.03, -13.85, -13.85, -13.85, -13.85, -13.48, -13.48, -13.21, -13.01, -12.45, -11.8, -11.44, -11.16, -11.16, -10.01, -10.01, -9.94, -9.69, -8.37, -8.14, -8.28, -8.9, -8.31, -8.3, -7.38, -6.79, -6.8, -6.79, -6.1, -5.6, -5.25, -3.47, -1.71, 0.0, 2.6, 2.6, 2.6, 0.0, 0.0, 0.0, 0.0, 0.0, 0.0, 3.53, 3.68, 7.27, 7.27, 9.2, 8.8, 6.95, 7.27, 10.18, 10.84, 9.54, 8.8, 7.9, 7.59, 5.95, 3.68, 3.53, 0.0, 0.0, 0.0, 9.2, 8.55, 7.27, 11.18, 2.93, 2.91, 5.65, 5.87, 5.59, 3.41, 0.0, -5.94, -11.38, -12.7, -6.52, -2.4, 0.0, 0.0, -1.51, -1.66, 0.0, 0.0, 2.63, 6.67, 2.54, 0.0, -3.25, 0.0, 1.61, 2.13, 6.2, 9.12, 7.59, 7.59, -13.85, -13.85, -13.85, -13.85, -13.48, -13.48, -13.48, -13.48, -13.21, -13.01, -12.45, -11.8, -11.16, -11.16, -11.16, -10.59, -10.3, -10.23, -9.86, -10.63, -10.12, -10.44, -10.39, -9.73, -9.44, -8.78, -7.53, -6.67, -5.4, -4.87, -5.2, -4.32, -3.19, 0.0, 0.0, 4.15, 4.15, 4.8, 2.6, 2.19, 2.19, 2.19, 1.84, 1.71, 1.64, 3.82, 3.11, 4.6, 4.6, 7.27, 8.8, 9.75, 10.73, 11.18, 10.41, 9.2, 10.0, 9.3, 8.22, 5.0, 0.0, 0.0, 0.0, 11.18, 7.27, 7.59, 10.18, 12.07, 12.04, 11.28, 11.06, 9.91, 6.22, 0.0, -4.27, -8.97, -15.41, -15.53, -14.18, -10.75, -4.3, 0.0, 1.47, 2.91, 1.96, 2.63, 4.98, 6.9, 4.71, 0.0, -4.65, -4.24, 0.0, 2.63, 4.38, 6.6, 5.48, 5.48, -13.48, -13.48, -13.48, -13.48, -13.48, -13.48, -13.48, -13.48, -13.3, -12.65, -12.09, -11.8, -11.16, -11.16, -10.94, -10.94, -10.65, -10.65, -10.94, -11.28, -10.72, -10.12, -9.8, -9.5, -8.78, -7.64, -6.12, -4.94, -3.6, -3.11, -3.55, -3.34, -1.44, 0.0, 1.91, 3.07, 3.19, 3.19, 1.84, 1.84, 1.84, 2.19, 2.19, 1.98, 1.84, 2.1, 0.0, 0.0, 7.27, 7.27, 9.2, 10.73, 10.73, 11.18, 10.73, 10.96, 11.18, 11.72, 9.08, 7.59, 0.0, 0.0, 7.9, 10.0, 9.3, 9.3, 10.4, 11.71, 12.96, 14.75, 13.42, 14.22, 15.42, 10.8, -7.87, -10.73, -15.19, -17.12, -16.74, -15.12, -12.22, -2.34, 1.78, 6.17, 5.81, 6.65, 6.9, 6.4, 4.05, 1.33, -1.71, -4.98, 0.0, 0.0, 4.52, 4.52, 2.89, 2.89, -13.75, -13.75, -13.48, -13.48, -13.48, -13.48, -12.93, -12.93, -12.93, -12.93, -12.37, -11.8, -11.23, -11.16, -10.94, -10.94, -11.01, -10.7, -10.99, -11.05, -10.13, -8.87, -8.24, -8.54, -7.85, -6.94, -5.69, -4.79, -3.3, -2.72, -2.37, -1.77, -1.05, 0.0, 0.0, 2.52, 2.52, 2.52, 1.28, 1.44, 1.64, 1.64, 1.91, 4.32, 2.28, 2.71, 0.0, 0.0, 0.0, 7.27, 10.28, 10.73, 10.73, 11.18, 10.73, 10.73, 11.18, 12.79, 11.12, 6.64, 6.64, -0.0, 5.2, 11.03, 10.0, 10.38, 11.28, 10.6, 11.03, 11.2, 13.86, 17.88, 18.65, -0.0, -8.05, -9.21, -11.95, -14.17, -16.02, -16.17, -13.15, -11.06, -2.57, 0.0, 3.58, 4.87, 5.46, 3.93, 2.15, 3.69, 1.83, 0.0, 0.0, 0.0, 0.0, 3.47, 2.35, 2.35, -13.75, -13.75, -13.75, -13.48, -13.11, -12.93, -12.93, -12.93, -12.93, -12.37, -12.37, -11.8, -11.23, -11.52, -10.94, -10.94, -11.04, -11.04, -10.73, -10.12, -9.5, -8.53, -7.22, -7.51, -7.48, -6.72, -6.0, -5.69, -4.43, -3.9, -2.72, -2.22, -1.64, -0.86, 0.0, 0.0, 1.01, 1.01, 0.0, 0.0, 0.0, 0.0, 1.64, 1.91, 2.28, 0.0, 0.0, 0.0, 7.59, 10.0, 10.4, 11.18, 10.73, 10.73, 10.28, 10.28, 10.28, 12.07, 11.6, 9.3, 6.32, 0.0, 5.0, 9.67, 10.0, 11.21, 11.71, 12.52, 10.6, 7.9, -11.18, -17.11, -18.33, 0.0, 0.0, -13.41, -13.41, -12.58, -13.48, -14.42, -13.27, -13.15, -10.43, -6.4, -4.05, -2.09, 0.0, 0.0, 0.0, 8.93, 6.2, 6.0, 3.36, 0.0, 0.0, 0.0, 0.0, 0.0, -13.36, -13.36, -13.36, -13.36, -13.2, -13.2, -12.82, -12.82, -12.37, -12.37, -12.0, -11.8, -11.44, -11.23, -11.29, -11.29, -11.04, -10.39, -10.39, -10.09, -9.5, -8.81, -8.15, -7.48, -6.76, -6.76, -6.25, -6.0, -4.98, -4.43, -3.9, -2.97, -2.31, -1.54, -0.8, 0.0, 0.0, 0.0, 0.0, 0.0, 0.0, 0.0, 0.0, 0.0, 0.0, 0.0, 0.0, 0.0, 3.11, 6.95, 8.93, 11.2, 10.73, 10.73, 10.28, 10.28, 10.28, 9.33, 11.62, 8.85, 6.2, 0.0, 9.83, 8.93, 10.79, 11.84, 11.84, 12.07, 11.71, 0.0, -9.48, -9.09, -3.1, 2.76, 7.96, 9.2, 9.2, -8.68, -12.79, -12.25, -12.87, -12.87, -11.37, -10.18, -9.44, -8.18, -6.6, -4.66, 2.98, 13.99, 14.4, 9.8, 7.1, 5.48, 0.0, 0.0, 0.0, 0.0, -13.36, -13.36, -13.2, -13.2, -13.2, -12.82, -12.82, -12.27, -12.27, -12.27, -12.0, -11.8, -11.8, -11.23, -10.99, -10.94, -10.7, -10.39, -10.39, -9.8, -9.8, -9.17, -8.81, -7.85, -7.44, -6.76, -6.04, -6.04, -5.55, -5.03, -4.7, -3.47, -2.87, -2.22, -1.54, -0.8, -0.76, -0.76, -0.8, 0.0, 0.0, 0.0, 0.0, 0.0, 0.0, 0.0, 0.0, 0.0, 1.93, 4.4, 7.9, 9.3, 11.2, 12.07, 11.18, 10.73, 10.28, 9.83, 10.28, 0.0, 0.0, 0.0, 2.97, 9.83, 10.84, 11.71, 12.14, 12.52, 12.3, 0.0, -8.53, -7.36, -3.04, 0.0, 7.03, 12.41, 11.27, 5.14, -8.22, -11.03, -12.6, -12.39, -13.34, -12.11, -11.9, -9.77, -8.43, -5.48, 11.8, 13.59, 13.26, 11.06, 8.16, 7.0, 6.2, 5.31, 5.15, 5.15, -13.2, -13.2, -13.2, -12.82, -12.82, -12.82, -12.65, -12.27, -12.27, -12.09, -12.09, -11.8, -11.8, -11.23, -11.23, -10.65, -10.39, -10.39, -10.11, -9.8, -9.48, -9.48, -8.53, -7.85, -7.44, -6.5, -6.5, -6.04, -5.55, -5.27, -4.7, -4.17, -3.73, -3.6, -3.11, -2.28, -2.28, -1.48, -1.52, -1.45, -1.7, -0.97, -1.05, 0.0, 0.0, 0.0, 0.0, 0.0, 0.0, 1.93, 4.8, 6.2, 7.27, 9.75, 11.18, 10.73, 10.73, 9.2, 4.2, -0.0, 0.0, 0.0, 2.71, 7.59, 12.14, 11.62, 12.07, 12.96, 12.96, 0.0, -9.17, -8.05, -6.6, -1.54, 6.87, 15.13, 10.3, 6.22, -6.95, -9.76, -11.21, -11.77, -12.99, -12.04, -12.74, -12.27, -9.77, 3.79, 12.16, 10.43, 7.82, 6.52, 8.35, 7.4, 6.8, 5.63, 6.4, 6.4, -12.82, -12.82, -12.82, -12.82, -12.65, -12.65, -12.27, -12.27, -12.27, -11.72, -11.72, -11.72, -11.44, -11.44, -11.23, -10.65, -10.39, -10.06, -9.78, -9.78, -9.17, -9.17, -8.83, -8.53, -7.85, -7.16, -6.5, -6.04, -5.36, -5.08, -4.77, -4.02, -4.24, -3.6, -3.11, -2.99, -2.28, -2.19, -2.34, -1.52, -1.7, -1.91, -1.01, -1.02, 0.0, 0.0, 0.0, 0.0, 0.0, 0.0, 2.19, 3.39, 4.8, 4.6, 10.73, 11.62, 11.18, 9.6, 4.6, 4.6, 0.0, 0.0, 2.19, 7.24, 9.67, 10.41, 13.41, 12.52, -12.07, -12.96, -10.12, -6.4, -7.44, -8.66, -5.64, 0.0, 0.0, 0.0, -12.39, -10.28, -10.96, -10.79, -12.15, -11.39, -11.62, -12.98, -14.31, 15.65, 11.06, 5.48, 2.89, 0.0, 4.75, 6.53, 6.84, 5.81, 4.81, 4.81, -12.82, -12.82, -12.82, -12.65, -12.27, -12.27, -12.27, -12.27, -11.9, -11.72, -11.72, -11.72, -11.72, -11.23, -11.23, -10.65, -10.3, -10.06, -9.78, -9.78, -9.17, -8.87, -8.54, -8.53, -8.15, -7.87, -7.19, -6.76, -6.08, -5.08, -4.37, -4.6, -4.24, -3.6, -3.47, -2.99, -2.99, -2.19, -2.19, -2.25, -1.7, -1.84, -2.0, -1.98, 0.0, 0.0, 0.0, -1.09, -1.28, 0.0, 0.0, 0.0, 0.0, 0.0, 0.0, 10.73, 12.07, 11.62, 4.8, 5.0, 11.18, 5.0, 3.82, 6.94, 8.53, 12.3, 13.44, 12.52, -10.4, -10.4, -9.8, -2.89, -3.36, -8.73, -12.07, -13.62, -13.14, -7.14, -16.79, -16.99, -11.91, -9.6, -11.2, -10.43, -11.26, -13.15, -13.41, 0.0, 0.0, 0.0, 0.0, 0.0, 0.0, 4.23, 5.37, 4.12, 4.35, 4.35, -12.27, -12.27, -12.27, -12.27, -12.27, -12.27, -12.27, -11.72, -11.72, -11.72, -11.35, -11.16, -11.52, -11.23, -11.23, -10.88, -10.65, -10.06, -9.78, -9.46, -9.17, -8.87, -8.54, -8.54, -8.17, -7.87, -7.48, -7.04, -6.08, -5.6, -5.08, -4.6, -4.02, -3.87, -3.47, -3.47, -2.99, -2.88, -2.88, -2.25, -2.25, -2.41, -2.0, -2.1, -1.39, 0.0, 0.0, -2.23, -2.82, -2.19, -2.19, -2.49, 0.0, 0.0, 0.0, 0.0, 9.83, 11.18, 8.22, 7.9, 10.73, 7.9, 3.82, 5.2, 10.8, 12.52, 13.41, 14.3, 0.0, -8.8, -10.73, -6.0, 0.0, -4.12, -10.59, -14.17, -13.16, -11.16, -6.81, -11.16, -19.51, -11.44, -10.16, -10.19, -7.26, 0.0, 0.0, 0.0, -6.6, -6.6, -4.66, -4.95, 0.0, 1.73, 1.46, 2.65, 2.87, 2.87, -12.27, -12.27, -12.27, -12.27, -12.27, -11.9, -11.72, -11.72, -11.72, -11.35, -11.35, -11.44, -11.16, -11.16, -10.88, -10.88, -10.65, -10.36, -9.77, -9.17, -8.87, -8.87, -8.54, -8.54, -8.17, -7.78, -7.78, -7.09, -5.86, -5.86, -5.08, -5.08, -4.6, -4.6, -3.87, -3.92, -3.33, -3.53, -2.76, -2.95, -2.25, -2.41, -2.6, -3.08, -3.39, -3.82, -3.82, -2.6, -3.82, -2.71, -2.6, -5.7, -5.7, -7.59, -9.6, 0.0, 10.28, 11.62, 10.73, 11.18, 11.18, 8.22, 8.53, 0.0, 0.0, 11.62, 10.4, 12.96, 5.4, -4.4, -8.06, -10.0, 0.0, 1.75, -2.61, -8.41, -9.61, -7.92, -7.4, -4.77, -9.8, -15.01, -9.17, -2.63, 0.0, 2.56, 2.02, 0.0, -1.58, -2.89, -4.66, -4.66, 0.0, 0.0, 0.0, 1.34, 6.31, 6.31, -12.27, -12.27, -12.27, -12.27, -11.72, -11.72, -11.72, -11.35, -11.35, -11.62, -11.44, -11.07, -11.44, -10.8, -10.94, -10.65, -10.65, -10.36, -9.77, -9.48, -9.17, -8.87, -8.54, -8.54, -8.17, -7.78, -7.51, -7.14, -6.96, -5.47, -5.86, -5.86, -5.33, -5.14, -4.6, -4.43, -3.92, -3.92, -3.39, -3.39, -2.82, -3.16, -2.6, -2.82, -3.08, -4.15, -4.15, -2.6, -2.1, -2.71, -5.95, -5.7, -7.59, -8.93, -9.2, 0.0, 11.18, 11.18, 10.73, 10.28, 12.07, 11.62, 8.22, 0.0, 0.0, -0.0, -0.0, 0.0, 0.0, -3.82, -5.7, 0.0, 0.0, 0.0, 1.71, -2.44, -7.2, -7.27, -6.2, -4.7, -2.59, -1.78, 0.0, 1.58, 2.24, 1.89, 0.82, 0.74, 0.0, -1.53, 0.0, 0.0, 4.66, 9.12, 3.3, 7.0, 11.38, 11.38, -11.9, -11.9, -11.9, -11.72, -11.72, -11.72, -11.35, -11.35, -11.44, -11.44, -11.07, -11.07, -11.07, -10.87, -10.59, -10.3, -10.65, -10.06, -9.77, -9.48, -9.48, -8.87, -8.24, -8.24, -7.89, -7.82, -7.82, -7.4, -7.02, -6.96, -5.98, -5.92, -5.92, -5.65, -5.14, -5.2, -4.66, -3.92, -4.15, -3.39, -3.46, -3.16, -3.39, -3.67, -3.82, -3.98, -3.08, -2.23, -2.95, -3.98, -4.6, -4.6, -7.9, -8.93, -9.2, 0.0, 7.59, 9.6, 9.2, 10.18, 10.73, 10.73, 8.22, 10.73, 11.18, 11.18, 10.73, 0.0, -8.22, -4.1, 0.0, 10.0, 0.0, -8.28, -3.49, -1.39, -4.66, -11.62, 0.0, 0.0, 1.15, 2.11, 1.1, 0.0, 0.0, 0.0, -0.73, -0.66, 0.0, 0.0, 11.6, 11.16, 13.44, 14.03, 13.39, 11.54, 12.65, 12.65, -11.99, -11.99, -11.72, -11.72, -11.72, -11.35, -11.35, -11.16, -11.44, -11.44, -11.07, -11.07, -10.87, -10.87, -10.23, -10.23, -10.01, -10.06, -10.06, -9.48, -9.48, -8.87, -8.56, -8.24, -7.89, -7.82, -7.82, -7.4, -7.4, -6.7, -5.98, -5.98, -5.98, -5.92, -5.4, -5.2, -5.2, -4.66, -4.15, -3.98, -3.61, -3.69, -3.39, -3.67, -3.67, -2.95, -2.95, -3.25, -3.77, -4.23, -4.8, -5.75, -6.44, -7.27, -7.27, 0.0, 7.27, 6.95, 9.2, 10.18, 12.52, 11.18, 11.18, 11.18, 10.28, 10.73, 10.73, 0.0, 0.0, 0.0, 3.96, 8.85, 0.0, -8.43, -10.02, -4.26, 1.44, 6.16, 6.73, 3.22, 1.0, 0.0, 0.0, 0.0, -1.73, -2.17, -2.08, -1.32, 0.0, 4.24, 11.87, 10.19, 11.2, 13.41, 12.45, 12.51, 12.16, 12.16, -11.99, -11.99, -11.62, -11.62, -11.35, -11.16, -11.16, -11.16, -11.44, -11.07, -11.07, -10.87, -10.87, -10.51, -10.3, -10.3, -10.01, -9.72, -10.06, -9.77, -9.48, -9.17, -8.87, -8.24, -7.89, -8.2, -7.82, -7.82, -7.4, -7.09, -6.7, -5.98, -5.98, -5.47, -5.47, -5.47, -5.47, -4.92, -4.73, -4.4, -4.23, -3.69, -3.95, -3.39, -3.51, -2.71, -2.83, -2.95, -3.25, -3.77, -4.23, -5.0, -4.8, -5.29, -2.6, 0.0, 0.0, 4.4, 6.95, 10.28, 9.83, 11.62, 10.73, 11.18, 11.18, 11.18, 10.73, 0.0, 0.0, -12.07, 0.0, 0.0, 0.0, -3.52, -5.87, -2.51, 4.71, 8.2, 6.47, 2.79, 0.0, -2.65, -2.44, -2.37, -2.44, -1.4, -0.7, 0.0, 1.33, 10.73, 12.04, 9.77, 11.2, 12.52, 11.6, 9.17, 10.43, 10.43, -11.62, -11.62, -11.62, -11.44, -11.44, -11.16, -11.16, -11.16, -11.07, -11.07, -10.87, -10.87, -10.87, -10.51, -10.3, -10.3, -10.01, -10.01, -9.72, -9.46, -9.17, -9.17, -8.87, -8.24, -8.24, -8.2, -7.82, -7.82, -7.4, -7.4, -6.94, -6.7, -5.98, -5.75, -5.26, -5.26, -5.26, -5.0, -5.0, -5.0, -4.5, -3.85, -3.95, -3.11, -2.59, -2.59, -3.36, -3.82, -4.18, -4.8, -4.8, -5.32, -4.05, -3.39, -2.02, 0.0, 0.0, 3.11, 4.4, 10.28, 10.28, 8.94, 10.73, 10.28, 9.2, 7.9, 7.27, 0.0, 0.0, -11.18, 0.0, 0.0, 0.0, 1.3, 0.0, 0.0, 2.47, 4.77, 4.42, 0.83, -0.87, -3.69, -3.56, -2.92, -2.04, 0.0, 0.0, 1.38, 4.93, 10.12, 12.96, 12.71, 12.96, 12.96, 8.85, 7.19, 8.66, 8.66, -11.44, -11.44, -11.44, -11.44, -11.07, -10.8, -10.8, -10.8, -11.07, -10.87, -10.87, -10.87, -10.51, -10.51, -10.3, -10.3, -10.01, -9.76, -9.46, -9.46, -9.46, -9.46, -8.85, -8.56, -7.95, -7.61, -7.54, -7.54, -7.14, -7.14, -6.7, -6.7, -6.21, -5.98, -5.26, -5.54, -5.54, -5.0, -5.0, -5.3, -4.5, -4.8, -4.25, -3.07, -2.47, -3.36, -3.51, -4.6, -4.99, -4.36, -4.8, -5.32, -4.05, -3.39, -1.93, 0.0, 0.0, 0.0, 8.8, 9.33, 9.83, 9.11, 10.28, 9.83, 7.59, 7.9, 6.95, 0.0, 0.0, 0.0, 0.0, 0.0, 11.06, 6.59, 3.87, 0.0, -5.63, -5.0, -4.85, -3.02, -2.79, -2.21, -3.25, -1.98, 0.0, 0.0, 1.48, 3.56, 5.8, 8.1, 9.17, 11.16, 11.99, 6.0, 4.1, 4.1, 4.98, 6.9, -11.07, -11.07, -11.07, -11.07, -11.07, -10.8, -10.8, -10.59, -10.59, -10.87, -10.51, -10.51, -10.51, -10.3, -10.3, -10.3, -10.3, -9.42, -9.42, -9.13, -9.13, -9.13, -8.85, -8.85, -8.24, -7.61, -7.61, -7.54, -7.14, -7.14, -6.7, -6.7, -6.21, -5.98, -5.98, -5.54, -5.54, -5.0, -5.3, -5.09, -5.41, -4.8, -4.92, -4.58, -2.83, -3.11, -3.95, -4.92, -4.6, -5.21, -4.6, -5.1, -4.05, -3.25, -3.65, -1.84, 0.0, 0.0, 8.4, 9.33, 9.54, 9.11, 9.6, 6.64, 6.95, 7.59, 7.59, 0.0, 0.0, 0.0, 0.0, 0.0, 10.43, 5.51, 8.48, 6.26, -4.05, -10.17, -10.69, -8.25, -4.79, -1.26, 0.0, 0.0, 3.36, 2.63, 4.38, 4.38, 3.68, 4.24, 4.24, 3.25, 3.25, 4.24, 0.0, 0.0, 2.63, 4.98, -11.07, -11.07, -11.07, -11.07, -11.07, -10.8, -10.59, -10.59, -10.59, -10.51, -10.51, -10.51, -10.3, -10.3, -10.3, -10.3, -9.94, -9.71, -9.42, -9.42, -8.82, -8.53, -8.53, -8.53, -8.24, -8.24, -7.61, -7.24, -7.54, -7.14, -7.14, -6.7, -6.7, -6.21, -5.98, -5.77, -5.54, -5.54, -5.3, -5.09, -5.41, -4.92, -4.92, -5.06, -4.58, -3.78, -4.8, -5.14, -5.7, -4.99, -4.4, -4.88, -3.7, -2.97, -2.97, -1.84, -1.75, 0.0, 6.64, 8.91, 9.33, 8.91, 7.21, 8.8, 7.27, 7.27, 6.95, 0.0, 10.73, 11.18, 11.18, 0.0, -13.86, 0.0, 8.8, 15.59, 10.8, -2.28, -8.94, -8.31, -4.98, -1.66, 0.0, 0.0, 3.14, 2.72, 2.02, 2.09, 2.02, 1.96, 2.28, 2.72, 3.36, 4.38, 4.24, 0.0, 0.0, 2.63, -10.96, -10.96, -10.51, -10.51, -10.87, -10.59, -10.59, -10.23, -10.23, -10.51, -10.3, -10.3, -10.3, -10.3, -10.3, -9.94, -9.94, -9.71, -9.08, -8.82, -8.82, -8.82, -8.82, -8.24, -8.24, -8.24, -7.9, -7.61, -7.24, -7.14, -7.14, -6.45, -6.45, -5.98, -5.98, -6.29, -5.77, -5.86, -5.86, -5.41, -5.41, -5.52, -5.52, -5.52, -5.28, -5.92, -4.92, -5.7, -5.9, -5.21, -4.98, -4.66, -3.7, -3.52, -2.83, -2.83, -1.67, 0.0, 4.0, 8.4, 8.91, 8.91, 9.6, 8.8, 8.8, 9.2, 4.4, 0.0, 10.28, 11.18, 11.62, 0.0, -12.96, -12.39, 4.95, 11.95, 15.93, 10.49, 0.0, -3.14, -8.18, 0.0, 1.96, 1.48, 1.66, 0.0, 0.0, 0.0, 0.0, 0.0, 0.0, 0.0, 3.36, 6.2, 4.24, 4.1, 0.0, 0.0, -10.79, -10.79, -10.51, -10.51, -10.51, -10.51, -10.23, -10.23, -10.01, -10.3, -10.3, -9.94, -9.94, -9.94, -9.94, -9.94, -9.71, -9.71, -9.37, -8.82, -8.82, -8.82, -8.53, -8.53, -8.53, -8.24, -7.9, -7.9, -7.54, -7.24, -7.14, -6.87, -6.45, -6.45, -6.29, -6.29, -5.77, -6.09, -5.86, -5.63, -5.41, -5.76, -5.52, -5.52, -5.95, -5.41, -5.29, -5.21, -5.46, -5.46, -5.46, -4.44, -4.44, -3.52, -3.8, -2.69, -2.99, -2.69, 0.0, 8.0, 8.4, 8.48, 8.06, 8.8, 8.8, 8.8, 7.27, 7.27, 10.28, 11.18, 11.62, 0.0, -12.96, -12.52, -13.99, -3.9, 3.92, 8.18, 11.09, 9.55, 9.32, 8.0, 6.88, 4.3, 2.04, 0.0, 0.0, 0.0, -2.09, -1.77, 0.0, 0.0, 0.0, 0.0, 0.0, 0.0, 0.0, 0.0, -10.41, -10.41, -10.41, -10.15, -10.51, -10.51, -10.01, -9.66, -9.66, -9.94, -9.94, -9.94, -9.94, -9.94, -9.71, -9.71, -9.71, -9.71, -9.37, -8.82, -8.82, -8.53, -8.53, -8.53, -8.53, -8.53, -8.2, -8.2, -7.9, -7.54, -7.14, -7.14, -6.45, -6.45, -6.29, -6.29, -5.77, -6.09, -6.09, -5.3, -5.63, -5.41, -5.41, -5.41, -5.41, -5.63, -4.8, -4.78, -4.2, -4.44, -4.44, -4.44, -4.44, -4.44, -3.8, -3.8, -4.14, -2.54, 0.0, 6.32, 8.0, 6.32, 7.44, 9.6, 8.8, 8.8, 7.27, 9.6, 10.28, 11.18, 11.18, 0.0, -11.62, -12.96, -13.15, -12.16, -4.34, 3.35, 10.83, 14.45, 14.48, 13.87, 9.48, 7.11, 4.4, 3.36, 0.0, 0.0, -3.93, -3.93, -5.15, -7.69, -12.39, -9.48, -7.19, -5.8, -5.8, -5.8, -10.41, -10.41, -10.41, -9.94, -9.94, -9.94, -9.94, -9.66, -9.66, -9.66, -9.94, -9.94, -9.71, -9.71, -9.71, -9.71, -9.71, -9.37, -9.37, -9.12, -9.12, -8.53, -8.53, -8.85, -8.85, -8.52, -8.52, -8.2, -8.2, -7.54, -7.54, -7.14, -6.45, -6.45, -5.98, -6.29, -5.77, -6.09, -6.09, -5.3, -5.63, -5.41, -5.41, -5.41, -5.41, -5.14, -5.14, -4.6, -4.78, -4.4, -4.66, -4.66, -4.96, -4.96, -4.96, -4.71, -4.37, -2.54, 0.0, 3.8, 6.01, 6.32, 7.44, 7.07, 9.6, 8.8, 6.95, 6.64, 9.75, 10.73, 11.62, 0.0, -10.0, -12.14, -11.99, -10.12, -3.16, 1.66, 6.26, 13.57, 18.19, 17.34, 12.76, 8.07, 6.47, 5.99, 4.34, 1.63, -2.09, -6.9, -7.93, -12.52, -12.96, -12.96, -12.58, -11.2, -11.2, -11.2, -10.41, -10.41, -10.41, -10.23, -9.94, -9.94, -9.94, -9.94, -9.66, -9.66, -9.71, -9.71, -9.71, -9.71, -9.71, -9.71, -9.37, -9.37, -9.37, -9.12, -9.12, -8.84, -8.53, -8.53, -8.52, -8.52, -8.52, -8.52, -7.82, -7.54, -7.54, -7.14, -6.87, -6.45, -6.45, -6.29, -6.29, -5.77, -6.09, -5.51, -5.3, -5.63, -5.63, -5.41, -5.41, -5.14, -5.52, -5.29, -4.6, -4.78, -4.4, -4.66, -4.66, -4.96, -4.96, -4.71, -4.37, -2.54, 0.0, 3.6, 3.8, 6.01, 4.96, 6.64, 6.32, 4.6, 4.4, 4.0, 4.4, 7.27, 0.0, 0.0, -8.22, -8.85, -4.24, 0.0, 2.98, 1.78, 4.7, 10.32, 17.28, 17.42, 11.84, 8.98, 9.0, 6.63, 4.26, 2.88, 0.0, -9.8, -12.72, -10.8, -12.14, -12.27, -12.52, -12.07, -12.07, -12.07, -10.41, -10.41, -9.86, -9.86, -9.86, -9.59, -9.59, -9.71, -9.42, -9.42, -9.08, -9.37, -9.37, -9.37, -9.37, -9.37, -9.37, -9.12, -9.12, -9.12, -9.12, -8.84, -8.84, -8.53, -8.21, -8.52, -8.52, -8.52, -8.15, -7.85, -7.85, -7.14, -6.87, -6.87, -6.45, -6.29, -6.29, -5.77, -6.09, -5.86, -5.3, -5.3, -5.3, -5.63, -5.41, -5.14, -5.14, -5.29, -5.29, -4.6, -4.78, -4.98, -4.2, -4.44, -4.71, -4.71, -4.37, 0.0, 0.0, 0.0, 2.54, 2.69, 4.71, 6.32, 6.32, 4.4, 6.64, 4.2, 6.95, 8.8, 0.0, 0.0, -8.22, 0.0, 0.0, 4.24, 2.81, 1.89, 7.2, 10.76, 11.73, 12.13, 12.49, 13.09, 12.63, 7.22, 3.07, 0.0, -0.0, -9.17, -10.01, -10.01, -10.35, -11.21, -11.71, -12.07, -12.07, -12.07, -10.04, -10.04, -9.86, -9.86, -9.86, -9.59, -9.37, -9.37, -9.37, -9.08, -9.08, -9.08, -9.37, -9.37, -9.37, -9.37, -9.12, -9.12, -9.12, -9.12, -9.12, -8.84, -8.84, -8.84, -8.53, -8.52, -8.52, -8.52, -7.85, -7.85, -7.85, -7.56, -7.18, -7.18, -6.76, -6.76, -6.29, -6.04, -5.86, -5.86, -5.86, -5.3, -5.3, -5.63, -5.63, -5.76, -5.14, -5.29, -5.29, -5.29, -4.78, -4.78, -4.56, -4.74, -4.44, -3.35, -2.69, -1.58, 0.0, 0.0, 0.0, 2.54, 4.71, 4.96, 6.32, 4.6, 4.4, 6.64, 8.8, 8.8, 9.2, 0.0, 0.0, 0.0, 0.0, 0.0, 0.0, 4.52, 8.18, 11.06, 9.92, 9.54, 15.21, 18.03, 16.76, 9.42, 2.98, -9.17, -4.81, -6.44, -6.44, -8.53, -8.22, -7.9, -9.3, -10.18, -10.18, -10.18, -10.04, -10.04, -9.86, -9.86, -9.86, -9.66, -9.37, -9.37, -9.37, -9.37, -9.08, -9.08, -9.08, -9.37, -9.37, -9.12, -9.12, -9.12, -9.12, -9.12, -9.12, -8.84, -8.84, -8.84, -8.84, -8.21, -8.21, -8.21, -7.85, -7.85, -7.85, -7.56, -7.18, -7.18, -7.18, -6.76, -6.5, -6.04, -6.36, -5.86, -5.86, -5.86, -5.3, -5.63, -5.63, -6.0, -5.76, -5.14, -5.29, -5.29, -5.06, -5.46, -4.56, -4.34, -4.0, -3.35, -2.33, -2.54, -1.58, 0.0, 0.0, 2.4, 2.54, 3.8, 3.8, 4.0, 8.0, 8.4, 8.91, 8.18, 6.95, 7.27, 7.9, 0.0, 0.0, 0.0, 0.0, 6.0, 8.94, 9.44, 9.09, 9.92, 14.88, 17.7, 16.9, 9.4, -10.73, -3.25, -0.0, -0.0, -2.93, -4.32, -6.44, -5.7, -5.46, -8.91, -8.91, -8.91, -9.86, -9.86, -9.86, -9.86, -9.86, -9.66, -9.02, -9.37, -9.37, -9.37, -9.08, -9.08, -9.08, -9.08, -8.82, -9.12, -9.12, -9.12, -9.12, -9.12, -8.84, -8.84, -8.84, -8.84, -8.84, -8.53, -8.21, -8.21, -7.85, -7.85, -7.56, -7.56, -7.18, -6.9, -7.22, -6.81, -6.81, -6.81, -6.36, -6.36, -5.86, -5.86, -5.86, -5.3, -5.63, -5.63, -5.76, -5.76, -5.29, -5.29, -5.29, -5.06, -4.83, -4.34, -3.63, -3.8, -2.98, -2.21, -2.54, -1.58, 0.0, 0.0, 1.84, 3.6, 3.6, 4.0, 8.0, 8.4, 8.4, 6.95, 6.95, 6.95, 4.4, 0.0, 0.0, 0.0, 0.0, 4.1, 7.69, 10.43, 9.44, 10.43, 12.73, 11.53, 11.43, 0.0, -6.4, -0.0, 10.73, 11.18, 11.62, -3.68, -6.2, -7.59, -8.55, -9.54, -9.54, -9.54, -9.86, -9.86, -9.86, -9.86, -9.5, -9.3, -9.3, -9.02, -9.02, -8.78, -8.5, -8.82, -8.82, -8.82, -8.82, -8.82, -9.12, -9.12, -9.12, -9.12, -8.84, -8.84, -8.84, -8.84, -8.53, -8.53, -8.21, -8.21, -8.21, -7.56, -7.56, -7.56, -7.22, -7.22, -7.22, -6.81, -6.81, -6.81, -6.36, -6.36, -6.36, -5.86, -5.86, -5.86, -5.63, -5.63, -5.76, -5.76, -5.76, -5.29, -5.29, -5.06, -5.06, -4.34, -4.34, -3.8, -2.98, -3.17, -2.54, -1.58, 0.0, 0.0, 0.0, 1.84, 1.84, 3.97, 6.64, 8.4, 8.4, 6.95, 7.27, 7.27, 7.27, 4.4, 0.0, 0.0, 0.0, 0.0, 6.0, 7.69, 8.58, 10.12, 8.94, 5.96, 1.7, 0.0, -5.09, -0.0, 0.0, 0.0, 7.9, 0.0, -10.4, -10.0, -9.6, -9.64, -9.64, -9.64, -9.86, -9.86, -9.86, -9.86, -9.5, -9.3, -9.3, -9.3, -9.02, -8.78, -8.5, -8.82, -8.82, -8.82, -8.82, -8.82, -9.12, -9.12, -9.12, -8.84, -8.84, -8.84, -8.84, -8.53, -8.21, -8.21, -8.21, -7.91, -7.91, -7.56, -7.56, -7.58, -7.22, -7.22, -7.22, -6.81, -6.81, -6.81, -6.81, -6.36, -6.36, -6.36, -6.36, -5.86, -6.2, -6.2, -5.76, -5.76, -5.76, -5.9, -5.29, -5.06, -5.06, -4.34, -4.34, -3.45, -3.8, -2.98, -2.21, -1.32, -1.49, 0.0, 0.0, 0.0, 1.84, 2.4, 4.2, 6.64, 0.0, 0.0, 0.0, 0.0, 0.0, 0.0, 0.0, 0.0, 0.0, 0.0, 0.0, 0.0, 9.48, 9.8, 7.59, 1.81, 0.0, 0.0, -4.01, -9.17, -8.22, -9.2, -11.18, -11.18, -11.03, -10.4, -10.41, -7.27, -7.27, -7.27, -9.86, -9.86, -9.86, -9.86, -9.5, -9.3, -9.3, -9.3, -9.3, -8.78, -8.78, -8.82, -8.82, -8.82, -8.82, -8.82, -8.82, -9.12, -8.84, -8.84, -8.84, -8.84, -8.84, -8.21, -7.91, -7.91, -7.91, -7.91, -7.56, -7.88, -7.58, -7.22, -7.22, -7.22, -7.22, -6.81, -6.81, -6.81, -6.81, -6.36, -6.36, -6.36, -6.36, -6.36, -5.86, -6.2, -6.57, -5.76, -5.76, -5.9, -5.9, -5.06, -4.83, -4.34, -4.34, -3.45, -3.8, -2.98, -2.21, -2.54, -1.49, 0.0, 0.0, 0.0, 0.0, 0.0, 0.0, 0.0, 0.0, 0.0, -10.28, -7.27, -7.27, 0.0, 10.28, 10.73, 0.0, -12.07, 0.0, 0.0, 0.0, 9.8, 5.8, 5.93, 4.08, 0.0, -6.8, -10.79, -10.8, -10.4, -10.0, -11.18, -10.6, -10.0, -0.0, 7.27, 7.27, 7.27, -9.86, -9.86, -9.86, -9.86, -9.5, -9.3, -9.3, -9.3, -9.3, -9.3, -8.78, -9.12, -8.82, -8.82, -8.82, -8.82, -8.82, -8.84, -8.84, -8.84, -8.84, -8.84, -8.84, -7.91, -7.91, -7.91, -7.91, -7.56, -7.27, -7.58, -7.58, -7.22, -7.22, -7.22, -6.81, -6.81, -6.81, -6.81, -6.81, -6.36, -6.36, -6.36, -6.36, -6.36, -6.36, -6.2, -6.2, -6.31, -5.76, -5.76, -5.9, -5.29, -4.83, -4.83, -4.34, -4.12, -3.8, -3.8, -3.17, -2.21, -2.54, -1.49, 0.0, 0.0, 0.0, 0.0, 0.0, 0.0, 0.0, -10.73, -10.73, -10.73, -7.59, 0.0, 9.83, 0.0, 0.0, -11.62, -12.52, -12.52, -12.52, 0.0, 9.66, 11.98, 10.13, 5.65, -12.39, -8.58, -9.96, -10.0, -7.9, 0.0, -0.0, 5.0, 8.94, 8.18, 8.18, 8.18, -9.86, -9.86, -9.86, -9.86, -9.5, -9.3, -9.3, -9.3, -9.3, -9.3, -9.3, -8.78, -8.78, -8.82, -8.82, -8.53, -8.22, -8.52, -8.52, -8.52, -8.52, -8.52, -8.52, -7.91, -7.91, -7.91, -7.6, -7.27, -7.27, -7.58, -7.58, -7.22, -7.22, -7.22, -6.81, -6.81, -6.81, -6.81, -6.36, -6.36, -6.36, -6.36, -6.11, -6.11, -6.11, -5.95, -5.95, -6.31, -5.76, -5.76, -5.52, -5.9, -4.83, -4.83, -4.34, -4.34, -3.45, -3.8, -2.83, -3.17, -2.54, -1.32, -1.32, -1.58, 0.0, 0.0, 0.0, 0.0, 0.0, -7.59, -10.73, -10.73, -10.73, 0.0, 0.0, 0.0, 0.0, -11.18, -11.62, -12.07, -12.52, 0.0, 9.92, 10.81, 12.79, 0.0, -11.38, -9.97, -10.6, -10.84, 8.22, 11.62, 11.62, 11.62, 10.6, 9.45, 9.45, 9.45, -10.13, -10.13, -9.86, -9.86, -9.5, -9.3, -9.3, -9.3, -9.3, -9.3, -9.3, -9.08, -8.78, -8.78, -8.22, -8.22, -8.22, -8.22, -8.52, -8.52, -8.52, -8.52, -8.52, -7.91, -7.91, -7.6, -7.27, -7.27, -7.27, -7.58, -7.22, -7.22, -7.22, -6.93, -6.54, -6.54, -6.81, -6.81, -6.81, -6.36, -6.36, -6.11, -6.11, -6.11, -6.44, -5.95, -5.95, -5.95, -5.76, -5.76, -5.52, -5.06, -4.83, -4.83, -4.0, -4.34, -4.12, -3.8, -3.8, -3.17, -2.21, -2.54, -2.54, -1.32, -1.58, -1.67, -2.06, -2.06, -2.06, -4.6, -9.2, -10.73, -10.28, 0.0, 0.0, 0.0, -4.4, -7.27, -10.18, -11.62, -11.6, -13.86, 0.0, 0.0, 4.26, 0.0, -19.22, -14.11, -11.18, -11.18, 11.62, 11.62, 11.95, 11.53, 11.18, 10.91, 10.91, 10.91, -10.13, -10.13, -10.13, -9.86, -9.5, -9.3, -9.3, -9.3, -9.3, -9.3, -9.3, -9.3, -9.08, -8.78, -8.78, -8.22, -8.22, -8.22, -8.52, -8.52, -8.52, -8.52, -8.52, -7.6, -7.6, -7.6, -7.27, -7.27, -7.27, -7.28, -6.93, -6.93, -6.93, -6.93, -6.54, -6.54, -6.54, -6.81, -6.81, -6.36, -6.36, -6.11, -6.11, -6.11, -6.44, -5.95, -5.95, -5.95, -5.41, -5.76, -5.52, -5.28, -4.71, -4.83, -4.6, -4.34, -4.12, -3.8, -3.8, -2.98, -3.17, -2.21, -2.21, -2.69, -2.69, -1.4, -1.75, -3.32, -4.0, -7.27, -9.2, -10.28, -9.83, -9.39, -9.39, -8.4, -6.64, -6.64, -7.27, -11.62, -12.52, -13.41, -10.43, -6.47, 0.0, 0.0, -7.3, -14.53, -10.01, -5.2, 8.22, 11.62, 12.07, 11.95, 11.62, 11.55, 11.55, 11.55, -9.76, -9.76, -10.13, -9.5, -9.5, -9.3, -9.3, -9.3, -9.3, -9.3, -9.08, -9.08, -9.08, -9.08, -8.78, -8.78, -8.52, -8.22, -8.22, -8.22, -8.52, -8.52, -8.19, -7.6, -7.6, -7.6, -7.27, -7.27, -7.28, -7.28, -6.93, -6.93, -6.93, -6.93, -6.54, -6.54, -6.54, -6.54, -6.54, -6.54, -6.11, -6.11, -6.11, -6.44, -5.95, -5.95, -5.95, -5.95, -5.95, -5.41, -5.18, -5.28, -4.71, -4.5, -4.6, -4.0, -4.12, -4.12, -3.8, -3.8, -2.98, -2.98, -3.35, -3.35, -2.69, -2.69, -2.83, -3.32, -3.32, -4.6, -7.51, -11.18, -9.75, -9.39, -9.39, -8.91, -8.4, -6.95, -3.25, -5.2, 0.0, -13.41, -10.43, -6.14, -4.95, 0.0, 0.0, -3.9, -3.93, -1.66, 0.0, 8.53, 12.52, 12.96, 12.07, 12.07, 12.07, 12.07, -9.76, -9.76, -9.76, -9.76, -9.5, -9.3, -9.3, -9.3, -9.3, -9.08, -9.08, -9.08, -9.08, -9.08, -9.08, -8.78, -8.52, -8.52, -8.22, -7.9, -7.9, -7.9, -8.19, -8.19, -7.6, -7.6, -7.27, -7.27, -7.28, -7.28, -6.93, -6.93, -6.93, -6.93, -6.54, -6.54, -6.54, -6.54, -6.54, -6.54, -6.11, -6.11, -6.11, -6.44, -5.95, -5.95, -5.95, -5.95, -5.41, -5.41, -5.18, -4.96, -5.28, -4.5, -4.5, -4.6, -4.0, -4.12, -3.45, -3.45, -3.8, -3.8, -3.8, -3.35, -3.35, -2.69, -2.83, -2.83, -4.0, -4.0, -6.64, -11.18, -10.28, -10.73, -9.39, -9.83, -9.33, -6.95, -3.25, -4.8, -8.53, -11.6, -11.9, -8.05, -4.12, 0.0, 1.68, 2.88, 2.35, 2.28, 2.72, 4.65, 11.71, 12.52, 12.52, 12.07, 12.07, 12.07, -9.76, -9.76, -9.76, -9.76, -9.58, -9.3, -9.3, -9.3, -9.3, -9.08, -9.08, -9.08, -9.08, -9.08, -9.08, -8.73, -8.45, -8.19, -8.19, -7.9, -7.9, -7.9, -7.9, -7.9, -7.9, -7.9, -7.58, -7.58, -7.28, -6.93, -6.93, -6.93, -6.93, -6.93, -6.54, -6.54, -6.54, -6.54, -6.54, -6.11, -6.11, -6.11, -6.11, -5.95, -5.95, -5.95, -5.95, -5.95, -5.41, -5.18, -5.18, -4.96, -5.28, -4.5, -4.5, -4.28, -4.0, -4.0, -4.34, -3.45, -3.45, -3.45, -3.8, -3.8, -3.35, -3.35, -3.52, -3.52, -4.0, -4.0, -5.21, -6.64, -8.72, -11.62, -9.39, -9.83, -8.18, -8.18, -5.7, -7.59, -8.22, -9.17, -11.53, -7.59, -5.94, 0.0, 3.41, 5.16, 5.62, 5.3, 5.33, 6.0, 9.17, 12.27, 12.52, 12.52, 12.52, 12.52, -9.76, -9.76, -9.76, -9.76, -9.58, -9.3, -9.3, -9.3, -9.3, -9.08, -9.08, -9.08, -9.08, -9.08, -9.08, -8.73, -8.45, -8.19, -8.19, -7.9, -7.9, -7.9, -7.9, -7.9, -7.9, -7.9, -7.58, -7.58, -7.28, -6.93, -6.93, -6.93, -6.93, -6.93, -6.54, -6.54, -6.54, -6.54, -6.54, -6.11, -6.11, -6.11, -6.11, -5.95, -5.95, -5.95, -5.95, -5.95, -5.41, -5.18, -5.18, -4.96, -5.28, -4.5, -4.5, -4.28, -4.0, -4.0, -4.34, -3.45, -3.45, -3.45, -3.8, -3.8, -3.35, -3.35, -3.52, -3.52, -4.0, -4.0, -5.21, -6.64, -8.72, -11.62, -9.39, -9.83, -8.18, -8.18, -5.7, -7.59, -8.22, -10.41, -10.73, -7.36, -5.65, -1.67, 1.69, 4.12, 6.08, 5.98, 6.8, 6.78, 7.13, 8.38, 12.27, 12.07, 12.07, 12.07]}]